Time,TemperatureF,DewpointF,PressureIn,WindDirection,WindDirectionDegrees,WindSpeedMPH,WindSpeedGustMPH,Humidity,HourlyPrecipIn,Conditions,Clouds,dailyrainin,SoftwareType,DateUTC
2013-04-09 00:00:00,44.2,42.3,30.34,East,92,0.0,0.0,93,0.00,,SKC,0.05,VWS V14.01,2013-04-09 07:00:00,
2013-04-09 00:01:00,44.2,42.3,30.34,East,92,0.0,0.0,93,0.00,,SKC,0.05,VWS V14.01,2013-04-09 07:01:00,
2013-04-09 00:03:00,44.2,42.3,30.34,East,92,0.0,0.0,93,0.00,,SKC,0.05,VWS V14.01,2013-04-09 07:03:00,
2013-04-09 00:15:00,44.2,42.3,30.34,East,92,0.0,0.0,93,0.00,,SKC,0.00,VWS V14.01,2013-04-09 07:15:00,
2013-04-09 00:22:00,44.2,42.3,30.34,East,92,0.0,0.0,93,0.00,,SKC,0.00,VWS V14.01,2013-04-09 07:22:00,
2013-04-09 00:23:00,44.2,42.3,30.34,East,92,0.0,0.0,93,0.00,,SKC,0.00,VWS V14.01,2013-04-09 07:23:00,
2013-04-09 00:27:00,44.2,42.3,30.34,East,92,0.0,0.0,93,0.00,,SKC,0.00,VWS V14.01,2013-04-09 07:27:00,
2013-04-09 00:28:00,44.2,42.3,30.34,East,92,0.0,0.0,93,0.00,,SKC,0.00,VWS V14.01,2013-04-09 07:28:00,
2013-04-09 00:30:00,44.0,42.1,30.34,East,92,0.0,0.0,93,0.00,,SKC,0.00,VWS V14.01,2013-04-09 07:30:00,
2013-04-09 00:32:00,44.1,42.2,30.34,East,92,0.0,0.0,93,0.00,,SKC,0.00,VWS V14.01,2013-04-09 07:32:00,
2013-04-09 00:33:00,44.1,42.2,30.34,East,92,0.0,0.0,93,0.00,,SKC,0.00,VWS V14.01,2013-04-09 07:33:00,
2013-04-09 00:38:00,44.0,42.1,30.34,East,92,0.0,0.0,93,0.00,,SKC,0.00,VWS V14.01,2013-04-09 07:38:00,
2013-04-09 00:39:00,43.9,42.0,30.34,East,92,0.0,0.0,93,0.00,,SKC,0.00,VWS V14.01,2013-04-09 07:39:00,
2013-04-09 00:43:00,43.8,41.9,30.34,East,92,0.0,0.0,93,0.00,,SKC,0.00,VWS V14.01,2013-04-09 07:43:00,
2013-04-09 00:44:00,43.8,41.9,30.34,East,92,0.0,0.0,93,0.00,,SKC,0.00,VWS V14.01,2013-04-09 07:44:00,
2013-04-09 00:45:00,43.8,41.9,30.34,East,92,0.0,0.0,93,0.00,,SKC,0.00,VWS V14.01,2013-04-09 07:45:00,
2013-04-09 00:49:00,43.7,41.8,30.34,East,92,0.0,0.0,93,0.00,,SKC,0.00,VWS V14.01,2013-04-09 07:49:00,
2013-04-09 00:50:00,43.6,41.7,30.34,East,92,0.0,0.0,93,0.00,,SKC,0.00,VWS V14.01,2013-04-09 07:50:00,
2013-04-09 00:54:00,43.5,41.6,30.34,East,92,0.0,0.0,93,0.00,,SKC,0.00,VWS V14.01,2013-04-09 07:54:00,
2013-04-09 00:55:00,43.4,41.5,30.34,East,92,0.0,0.0,93,0.00,,SKC,0.00,VWS V14.01,2013-04-09 07:55:00,
2013-04-09 01:00:00,43.3,41.4,30.34,East,92,0.0,0.0,93,0.00,,SKC,0.00,VWS V14.01,2013-04-09 08:00:00,
2013-04-09 01:05:00,43.1,41.2,30.35,East,92,0.0,0.0,93,0.00,,SKC,0.00,VWS V14.01,2013-04-09 08:05:00,
2013-04-09 01:06:00,43.1,41.2,30.34,East,92,0.0,0.0,93,0.00,,SKC,0.00,VWS V14.01,2013-04-09 08:06:00,
2013-04-09 01:07:00,43.1,41.2,30.34,East,92,0.0,0.0,93,0.00,,SKC,0.00,VWS V14.01,2013-04-09 08:07:00,
2013-04-09 01:10:00,42.9,41.0,30.35,East,92,0.0,0.0,93,0.00,,SKC,0.00,VWS V14.01,2013-04-09 08:10:00,
2013-04-09 01:12:00,42.9,41.0,30.35,East,92,0.0,0.0,93,0.00,,SKC,0.00,VWS V14.01,2013-04-09 08:12:00,
2013-04-09 01:15:00,42.8,40.9,30.35,East,92,0.0,0.0,93,0.00,,SKC,0.00,VWS V14.01,2013-04-09 08:15:00,
2013-04-09 01:17:00,42.7,40.8,30.35,East,92,0.0,0.0,93,0.00,,SKC,0.00,VWS V14.01,2013-04-09 08:17:00,
2013-04-09 01:20:00,42.7,41.1,30.35,East,92,0.0,0.0,94,0.00,,SKC,0.00,VWS V14.01,2013-04-09 08:20:00,
2013-04-09 01:21:00,42.6,41.0,30.35,East,92,0.0,0.0,94,0.00,,SKC,0.00,VWS V14.01,2013-04-09 08:21:00,
2013-04-09 01:22:00,42.6,41.0,30.35,East,92,0.0,1.0,94,0.00,,SKC,0.00,VWS V14.01,2013-04-09 08:22:00,
2013-04-09 01:26:00,42.5,40.9,30.35,East,92,0.0,0.0,94,0.00,,SKC,0.00,VWS V14.01,2013-04-09 08:26:00,
2013-04-09 01:27:00,42.5,40.9,30.35,East,92,0.0,0.0,94,0.00,,SKC,0.00,VWS V14.01,2013-04-09 08:27:00,
2013-04-09 01:30:00,42.2,40.6,30.35,East,92,0.0,0.0,94,0.00,,SKC,0.00,VWS V14.01,2013-04-09 08:30:00,
2013-04-09 01:31:00,42.4,40.8,30.35,East,92,0.0,0.0,94,0.00,,SKC,0.00,VWS V14.01,2013-04-09 08:31:00,
2013-04-09 01:32:00,42.4,40.8,30.35,East,92,0.0,0.0,94,0.00,,SKC,0.00,VWS V14.01,2013-04-09 08:32:00,
2013-04-09 01:33:00,42.3,40.7,30.35,East,92,0.0,0.0,94,0.00,,SKC,0.00,VWS V14.01,2013-04-09 08:33:00,
2013-04-09 01:36:00,42.2,40.6,30.35,East,92,0.0,0.0,94,0.00,,SKC,0.00,VWS V14.01,2013-04-09 08:36:00,
2013-04-09 01:37:00,42.2,40.6,30.35,East,92,0.0,0.0,94,0.00,,SKC,0.00,VWS V14.01,2013-04-09 08:37:00,
2013-04-09 01:38:00,42.2,40.6,30.35,East,92,0.0,0.0,94,0.00,,SKC,0.00,VWS V14.01,2013-04-09 08:38:00,
2013-04-09 01:42:00,42.0,40.4,30.35,East,92,0.0,0.0,94,0.00,,SKC,0.00,VWS V14.01,2013-04-09 08:42:00,
2013-04-09 01:43:00,42.0,40.4,30.35,East,92,0.0,0.0,94,0.00,,SKC,0.00,VWS V14.01,2013-04-09 08:43:00,
2013-04-09 01:45:00,42.0,40.4,30.36,East,92,0.0,0.0,94,0.00,,SKC,0.00,VWS V14.01,2013-04-09 08:45:00,
2013-04-09 01:48:00,41.9,40.3,30.36,East,92,0.0,0.0,94,0.00,,SKC,0.00,VWS V14.01,2013-04-09 08:48:00,
2013-04-09 01:49:00,41.8,40.2,30.36,East,92,0.0,0.0,94,0.00,,SKC,0.00,VWS V14.01,2013-04-09 08:49:00,
2013-04-09 01:50:00,41.8,40.2,30.36,East,92,0.0,0.0,94,0.00,,SKC,0.00,VWS V14.01,2013-04-09 08:50:00,
2013-04-09 01:53:00,41.7,40.1,30.36,East,92,0.0,0.0,94,0.00,,SKC,0.00,VWS V14.01,2013-04-09 08:53:00,
2013-04-09 01:54:00,41.6,40.0,30.36,East,92,0.0,0.0,94,0.00,,SKC,0.00,VWS V14.01,2013-04-09 08:54:00,
2013-04-09 01:55:00,41.5,39.9,30.36,East,92,0.0,0.0,94,0.00,,SKC,0.00,VWS V14.01,2013-04-09 08:55:00,
2013-04-09 01:58:00,41.5,39.9,30.35,East,92,0.0,0.0,94,0.00,,SKC,0.00,VWS V14.01,2013-04-09 08:58:00,
2013-04-09 01:59:00,41.4,39.8,30.35,East,92,0.0,0.0,94,0.00,,SKC,0.00,VWS V14.01,2013-04-09 08:59:00,
2013-04-09 02:00:00,41.4,39.8,30.35,East,92,0.0,0.0,94,0.00,,SKC,0.00,VWS V14.01,2013-04-09 09:00:00,
2013-04-09 02:04:00,41.3,39.7,30.35,East,92,0.0,0.0,94,0.00,,SKC,0.00,VWS V14.01,2013-04-09 09:04:00,
2013-04-09 02:05:00,41.2,39.6,30.35,East,92,0.0,0.0,94,0.00,,SKC,0.00,VWS V14.01,2013-04-09 09:05:00,
2013-04-09 02:06:00,41.2,39.6,30.35,East,92,0.0,0.0,94,0.00,,SKC,0.00,VWS V14.01,2013-04-09 09:06:00,
2013-04-09 02:07:00,41.1,39.5,30.35,East,92,0.0,0.0,94,0.00,,SKC,0.00,VWS V14.01,2013-04-09 09:07:00,
2013-04-09 02:09:00,41.1,39.5,30.36,East,92,0.0,0.0,94,0.00,,SKC,0.00,VWS V14.01,2013-04-09 09:09:00,
2013-04-09 02:10:00,41.0,39.4,30.36,East,92,0.0,0.0,94,0.00,,SKC,0.00,VWS V14.01,2013-04-09 09:10:00,
2013-04-09 02:12:00,41.0,39.4,30.36,East,92,0.0,0.0,94,0.00,,SKC,0.00,VWS V14.01,2013-04-09 09:12:00,
2013-04-09 02:15:00,40.9,39.3,30.36,East,92,0.0,0.0,94,0.00,,SKC,0.00,VWS V14.01,2013-04-09 09:15:00,
2013-04-09 02:16:00,40.8,39.2,30.36,East,92,0.0,0.0,94,0.00,,SKC,0.00,VWS V14.01,2013-04-09 09:16:00,
2013-04-09 02:17:00,40.8,39.2,30.36,East,92,0.0,0.0,94,0.00,,SKC,0.00,VWS V14.01,2013-04-09 09:17:00,
2013-04-09 02:19:00,40.7,39.1,30.36,East,92,0.0,0.0,94,0.00,,SKC,0.00,VWS V14.01,2013-04-09 09:19:00,
2013-04-09 02:20:00,40.6,39.0,30.36,East,92,0.0,0.0,94,0.00,,SKC,0.00,VWS V14.01,2013-04-09 09:20:00,
2013-04-09 02:21:00,40.6,39.0,30.36,East,92,0.0,0.0,94,0.00,,SKC,0.00,VWS V14.01,2013-04-09 09:21:00,
2013-04-09 02:22:00,40.6,39.0,30.36,East,92,0.0,0.0,94,0.00,,SKC,0.00,VWS V14.01,2013-04-09 09:22:00,
2013-04-09 02:24:00,40.5,38.9,30.36,East,92,0.0,0.0,94,0.00,,SKC,0.00,VWS V14.01,2013-04-09 09:24:00,
2013-04-09 02:25:00,40.5,38.9,30.36,East,92,0.0,0.0,94,0.00,,SKC,0.00,VWS V14.01,2013-04-09 09:25:00,
2013-04-09 02:26:00,40.4,38.8,30.36,East,92,0.0,0.0,94,0.00,,SKC,0.00,VWS V14.01,2013-04-09 09:26:00,
2013-04-09 02:27:00,40.4,38.8,30.36,East,92,0.0,0.0,94,0.00,,SKC,0.00,VWS V14.01,2013-04-09 09:27:00,
2013-04-09 02:29:00,40.3,38.7,30.36,East,92,0.0,0.0,94,0.00,,SKC,0.00,VWS V14.01,2013-04-09 09:29:00,
2013-04-09 02:30:00,40.0,38.4,30.36,East,92,0.0,0.0,94,0.00,,SKC,0.00,VWS V14.01,2013-04-09 09:30:00,
2013-04-09 02:32:00,40.2,38.6,30.36,East,92,0.0,0.0,94,0.00,,SKC,0.00,VWS V14.01,2013-04-09 09:32:00,
2013-04-09 02:34:00,40.1,38.5,30.36,East,92,0.0,0.0,94,0.00,,SKC,0.00,VWS V14.01,2013-04-09 09:34:00,
2013-04-09 02:37:00,40.0,38.4,30.36,East,92,0.0,0.0,94,0.00,,SKC,0.00,VWS V14.01,2013-04-09 09:37:00,
2013-04-09 02:38:00,40.0,38.4,30.36,East,92,0.0,0.0,94,0.00,,SKC,0.00,VWS V14.01,2013-04-09 09:38:00,
2013-04-09 02:40:00,39.9,38.3,30.36,East,92,0.0,0.0,94,0.00,,SKC,0.00,VWS V14.01,2013-04-09 09:40:00,
2013-04-09 02:42:00,39.8,38.2,30.36,East,92,0.0,0.0,94,0.00,,SKC,0.00,VWS V14.01,2013-04-09 09:42:00,
2013-04-09 02:43:00,39.8,38.2,30.36,East,92,0.0,0.0,94,0.00,,SKC,0.00,VWS V14.01,2013-04-09 09:43:00,
2013-04-09 02:45:00,39.8,38.2,30.36,East,92,0.0,0.0,94,0.00,,SKC,0.00,VWS V14.01,2013-04-09 09:45:00,
2013-04-09 02:48:00,39.7,38.1,30.36,East,92,0.0,0.0,94,0.00,,SKC,0.00,VWS V14.01,2013-04-09 09:48:00,
2013-04-09 02:51:00,39.6,38.3,30.36,East,92,0.0,0.0,95,0.00,,SKC,0.00,VWS V14.01,2013-04-09 09:51:00,
2013-04-09 02:53:00,39.6,38.3,30.36,East,92,0.0,0.0,95,0.00,,SKC,0.00,VWS V14.01,2013-04-09 09:53:00,
2013-04-09 02:56:00,39.5,37.9,30.36,East,92,0.0,0.0,94,0.00,,SKC,0.00,VWS V14.01,2013-04-09 09:56:00,
2013-04-09 02:58:00,39.4,37.8,30.35,East,92,0.0,0.0,94,0.00,,SKC,0.00,VWS V14.01,2013-04-09 09:58:00,
2013-04-09 02:59:00,39.4,38.1,30.36,East,92,0.0,0.0,95,0.00,,SKC,0.00,VWS V14.01,2013-04-09 09:59:00,
2013-04-09 03:00:00,39.4,38.1,30.36,East,92,0.0,0.0,95,0.00,,SKC,0.00,VWS V14.01,2013-04-09 10:00:00,
2013-04-09 03:02:00,39.4,38.1,30.36,East,92,0.0,0.0,95,0.00,,SKC,0.00,VWS V14.01,2013-04-09 10:02:00,
2013-04-09 03:03:00,39.4,38.1,30.36,East,92,0.0,0.0,95,0.00,,SKC,0.00,VWS V14.01,2013-04-09 10:03:00,
2013-04-09 03:04:00,39.4,38.1,30.36,East,92,0.0,0.0,95,0.00,,SKC,0.00,VWS V14.01,2013-04-09 10:04:00,
2013-04-09 03:05:00,39.4,38.1,30.36,East,92,0.0,0.0,95,0.00,,SKC,0.00,VWS V14.01,2013-04-09 10:05:00,
2013-04-09 03:07:00,39.4,38.1,30.36,East,92,0.0,0.0,95,0.00,,SKC,0.00,VWS V14.01,2013-04-09 10:07:00,
2013-04-09 03:09:00,39.4,38.1,30.35,East,92,0.0,0.0,95,0.00,,SKC,0.00,VWS V14.01,2013-04-09 10:09:00,
2013-04-09 03:10:00,39.4,38.1,30.36,East,92,0.0,0.0,95,0.00,,SKC,0.00,VWS V14.01,2013-04-09 10:10:00,
2013-04-09 03:12:00,39.4,38.1,30.36,East,92,0.0,0.0,95,0.00,,SKC,0.00,VWS V14.01,2013-04-09 10:12:00,
2013-04-09 03:14:00,39.4,38.4,30.35,East,92,0.0,0.0,96,0.00,,SKC,0.00,VWS V14.01,2013-04-09 10:14:00,
2013-04-09 03:15:00,39.4,38.4,30.35,East,92,0.0,0.0,96,0.00,,SKC,0.00,VWS V14.01,2013-04-09 10:15:00,
2013-04-09 03:17:00,39.4,38.4,30.36,East,92,0.0,0.0,96,0.00,,SKC,0.00,VWS V14.01,2013-04-09 10:17:00,
2013-04-09 03:20:00,39.4,38.1,30.36,East,92,0.0,0.0,95,0.00,,SKC,0.00,VWS V14.01,2013-04-09 10:20:00,
2013-04-09 03:21:00,39.4,38.1,30.36,East,92,0.0,0.0,95,0.00,,SKC,0.00,VWS V14.01,2013-04-09 10:21:00,
2013-04-09 03:23:00,39.4,38.1,30.36,East,92,0.0,0.0,95,0.00,,SKC,0.00,VWS V14.01,2013-04-09 10:23:00,
2013-04-09 03:25:00,39.5,38.5,30.35,East,92,0.0,0.0,96,0.00,,SKC,0.00,VWS V14.01,2013-04-09 10:25:00,
2013-04-09 03:26:00,39.5,38.5,30.35,East,92,0.0,0.0,96,0.00,,SKC,0.00,VWS V14.01,2013-04-09 10:26:00,
2013-04-09 03:28:00,39.6,38.6,30.35,East,92,0.0,0.0,96,0.00,,SKC,0.00,VWS V14.01,2013-04-09 10:28:00,
2013-04-09 03:30:00,39.6,38.6,30.35,East,92,0.0,0.0,96,0.00,,SKC,0.00,VWS V14.01,2013-04-09 10:30:00,
2013-04-09 03:32:00,39.7,38.7,30.35,East,92,0.0,0.0,96,0.00,,SKC,0.00,VWS V14.01,2013-04-09 10:32:00,
2013-04-09 03:33:00,39.7,38.7,30.35,East,92,0.0,0.0,96,0.00,,SKC,0.00,VWS V14.01,2013-04-09 10:33:00,
2013-04-09 03:34:00,39.7,38.7,30.35,East,92,0.0,0.0,96,0.00,,SKC,0.00,VWS V14.01,2013-04-09 10:34:00,
2013-04-09 03:35:00,39.7,38.7,30.35,East,92,0.0,0.0,96,0.00,,SKC,0.00,VWS V14.01,2013-04-09 10:35:00,
2013-04-09 03:37:00,39.7,38.7,30.35,East,92,0.0,0.0,96,0.00,,SKC,0.00,VWS V14.01,2013-04-09 10:37:00,
2013-04-09 03:38:00,39.7,38.7,30.35,East,92,0.0,0.0,96,0.00,,SKC,0.00,VWS V14.01,2013-04-09 10:38:00,
2013-04-09 03:39:00,39.7,38.7,30.35,East,92,0.0,0.0,96,0.00,,SKC,0.00,VWS V14.01,2013-04-09 10:39:00,
2013-04-09 03:40:00,39.7,38.7,30.35,East,92,0.0,0.0,96,0.00,,SKC,0.00,VWS V14.01,2013-04-09 10:40:00,
2013-04-09 03:42:00,39.7,38.7,30.35,East,92,0.0,0.0,96,0.00,,SKC,0.00,VWS V14.01,2013-04-09 10:42:00,
2013-04-09 03:43:00,39.7,38.7,30.35,East,92,0.0,0.0,96,0.00,,SKC,0.00,VWS V14.01,2013-04-09 10:43:00,
2013-04-09 03:45:00,39.7,38.7,30.35,East,92,0.0,0.0,96,0.00,,SKC,0.00,VWS V14.01,2013-04-09 10:45:00,
2013-04-09 03:47:00,39.7,38.7,30.35,East,92,0.0,0.0,96,0.00,,SKC,0.00,VWS V14.01,2013-04-09 10:47:00,
2013-04-09 03:51:00,39.8,38.8,30.35,East,92,0.0,0.0,96,0.00,,SKC,0.00,VWS V14.01,2013-04-09 10:51:00,
2013-04-09 03:52:00,39.9,38.8,30.35,East,92,0.0,0.0,96,0.00,,SKC,0.00,VWS V14.01,2013-04-09 10:52:00,
2013-04-09 03:53:00,39.9,38.8,30.35,East,92,0.0,0.0,96,0.00,,SKC,0.00,VWS V14.01,2013-04-09 10:53:00,
2013-04-09 03:56:00,40.0,39.0,30.36,East,92,0.0,0.0,96,0.00,,SKC,0.00,VWS V14.01,2013-04-09 10:56:00,
2013-04-09 03:57:00,40.0,39.0,30.36,East,92,0.0,0.0,96,0.00,,SKC,0.00,VWS V14.01,2013-04-09 10:57:00,
2013-04-09 03:58:00,40.0,39.0,30.36,East,92,0.0,0.0,96,0.00,,SKC,0.00,VWS V14.01,2013-04-09 10:58:00,
2013-04-09 04:00:00,40.3,39.2,30.36,East,92,0.0,0.0,96,0.00,,SKC,0.00,VWS V14.01,2013-04-09 11:00:00,
2013-04-09 04:03:00,40.1,39.0,30.36,East,92,0.0,0.0,96,0.00,,SKC,0.00,VWS V14.01,2013-04-09 11:03:00,
2013-04-09 04:04:00,40.2,39.2,30.36,East,92,0.0,0.0,96,0.00,,SKC,0.00,VWS V14.01,2013-04-09 11:04:00,
2013-04-09 04:08:00,40.3,39.2,30.36,East,92,0.0,0.0,96,0.00,,SKC,0.00,VWS V14.01,2013-04-09 11:08:00,
2013-04-09 04:09:00,40.4,39.3,30.36,East,92,0.0,0.0,96,0.00,,SKC,0.00,VWS V14.01,2013-04-09 11:09:00,
2013-04-09 04:10:00,40.4,39.3,30.36,East,92,0.0,0.0,96,0.00,,SKC,0.00,VWS V14.01,2013-04-09 11:10:00,
2013-04-09 04:11:00,40.4,39.6,30.36,East,92,0.0,0.0,97,0.00,,SKC,0.00,VWS V14.01,2013-04-09 11:11:00,
2013-04-09 04:13:00,40.5,39.7,30.36,East,92,0.0,0.0,97,0.00,,SKC,0.00,VWS V14.01,2013-04-09 11:13:00,
2013-04-09 04:15:00,40.5,39.7,30.37,East,92,0.0,0.0,97,0.00,,SKC,0.00,VWS V14.01,2013-04-09 11:15:00,
2013-04-09 04:16:00,40.5,39.7,30.37,East,92,0.0,0.0,97,0.00,,SKC,0.00,VWS V14.01,2013-04-09 11:16:00,
2013-04-09 04:18:00,40.5,39.7,30.37,East,92,0.0,0.0,97,0.00,,SKC,0.00,VWS V14.01,2013-04-09 11:18:00,
2013-04-09 04:20:00,40.6,39.8,30.37,East,92,0.0,0.0,97,0.00,,SKC,0.00,VWS V14.01,2013-04-09 11:20:00,
2013-04-09 04:21:00,40.6,39.8,30.37,East,92,0.0,0.0,97,0.00,,SKC,0.00,VWS V14.01,2013-04-09 11:21:00,
2013-04-09 04:22:00,40.6,39.8,30.37,East,92,0.0,0.0,97,0.00,,SKC,0.00,VWS V14.01,2013-04-09 11:22:00,
2013-04-09 04:24:00,40.6,39.8,30.37,East,92,0.0,0.0,97,0.00,,SKC,0.00,VWS V14.01,2013-04-09 11:24:00,
2013-04-09 04:26:00,40.7,39.9,30.37,East,92,0.0,0.0,97,0.00,,SKC,0.00,VWS V14.01,2013-04-09 11:26:00,
2013-04-09 04:27:00,40.7,39.9,30.36,East,92,0.0,0.0,97,0.00,,SKC,0.00,VWS V14.01,2013-04-09 11:27:00,
2013-04-09 04:30:00,40.7,39.7,30.36,East,92,0.0,0.0,96,0.00,,SKC,0.00,VWS V14.01,2013-04-09 11:30:00,
2013-04-09 04:32:00,40.7,39.7,30.36,East,92,0.0,0.0,96,0.00,,SKC,0.00,VWS V14.01,2013-04-09 11:32:00,
2013-04-09 04:33:00,40.7,39.7,30.37,East,92,0.0,0.0,96,0.00,,SKC,0.00,VWS V14.01,2013-04-09 11:33:00,
2013-04-09 04:35:00,40.7,39.7,30.37,East,92,0.0,0.0,96,0.00,,SKC,0.00,VWS V14.01,2013-04-09 11:35:00,
2013-04-09 04:37:00,40.8,39.8,30.37,East,92,0.0,0.0,96,0.00,,SKC,0.00,VWS V14.01,2013-04-09 11:37:00,
2013-04-09 04:39:00,40.8,39.8,30.37,East,92,0.0,0.0,96,0.00,,SKC,0.00,VWS V14.01,2013-04-09 11:39:00,
2013-04-09 04:41:00,40.9,39.8,30.37,East,92,0.0,0.0,96,0.00,,SKC,0.00,VWS V14.01,2013-04-09 11:41:00,
2013-04-09 04:42:00,40.9,39.8,30.37,East,92,0.0,0.0,96,0.00,,SKC,0.00,VWS V14.01,2013-04-09 11:42:00,
2013-04-09 04:43:00,40.9,39.8,30.37,East,92,0.0,0.0,96,0.00,,SKC,0.00,VWS V14.01,2013-04-09 11:43:00,
2013-04-09 04:44:00,40.9,39.8,30.37,East,92,0.0,0.0,96,0.00,,SKC,0.00,VWS V14.01,2013-04-09 11:44:00,
2013-04-09 04:45:00,41.0,40.0,30.37,East,92,0.0,0.0,96,0.00,,SKC,0.00,VWS V14.01,2013-04-09 11:45:00,
2013-04-09 04:47:00,41.0,40.0,30.37,East,92,0.0,0.0,96,0.00,,SKC,0.00,VWS V14.01,2013-04-09 11:47:00,
2013-04-09 04:49:00,41.0,40.0,30.37,East,92,0.0,0.0,96,0.00,,SKC,0.00,VWS V14.01,2013-04-09 11:49:00,
2013-04-09 04:52:00,41.0,40.0,30.37,East,92,0.0,0.0,96,0.00,,SKC,0.00,VWS V14.01,2013-04-09 11:52:00,
2013-04-09 04:53:00,41.0,40.0,30.37,East,92,0.0,0.0,96,0.00,,SKC,0.00,VWS V14.01,2013-04-09 11:53:00,
2013-04-09 04:55:00,41.0,40.2,30.37,East,92,0.0,0.0,97,0.00,,SKC,0.00,VWS V14.01,2013-04-09 11:55:00,
2013-04-09 04:57:00,41.1,40.3,30.37,East,92,0.0,0.0,97,0.00,,SKC,0.00,VWS V14.01,2013-04-09 11:57:00,
2013-04-09 04:58:00,41.1,40.3,30.37,East,92,0.0,0.0,97,0.00,,SKC,0.00,VWS V14.01,2013-04-09 11:58:00,
2013-04-09 05:00:00,41.1,40.3,30.37,East,92,0.0,0.0,97,0.00,,SKC,0.00,VWS V14.01,2013-04-09 12:00:00,
2013-04-09 05:03:00,41.1,40.3,30.37,East,92,0.0,0.0,97,0.00,,SKC,0.00,VWS V14.01,2013-04-09 12:03:00,
2013-04-09 05:04:00,41.1,40.3,30.37,East,92,0.0,0.0,97,0.00,,SKC,0.00,VWS V14.01,2013-04-09 12:04:00,
2013-04-09 05:05:00,41.1,40.3,30.37,East,92,0.0,0.0,97,0.00,,SKC,0.00,VWS V14.01,2013-04-09 12:05:00,
2013-04-09 05:08:00,41.1,40.0,30.37,East,92,0.0,0.0,96,0.00,,SKC,0.00,VWS V14.01,2013-04-09 12:08:00,
2013-04-09 05:09:00,41.1,40.0,30.37,East,92,0.0,0.0,96,0.00,,SKC,0.00,VWS V14.01,2013-04-09 12:09:00,
2013-04-09 05:10:00,41.1,40.0,30.37,East,92,0.0,0.0,96,0.00,,SKC,0.00,VWS V14.01,2013-04-09 12:10:00,
2013-04-09 05:11:00,41.1,40.0,30.37,East,92,0.0,0.0,96,0.00,,SKC,0.00,VWS V14.01,2013-04-09 12:11:00,
2013-04-09 05:13:00,41.1,40.0,30.37,East,92,0.0,0.0,96,0.00,,SKC,0.00,VWS V14.01,2013-04-09 12:13:00,
2013-04-09 05:15:00,41.1,40.0,30.37,East,92,0.0,0.0,96,0.00,,SKC,0.00,VWS V14.01,2013-04-09 12:15:00,
2013-04-09 05:16:00,41.1,40.0,30.37,East,92,0.0,0.0,96,0.00,,SKC,0.00,VWS V14.01,2013-04-09 12:16:00,
2013-04-09 05:17:00,41.1,40.0,30.37,East,92,0.0,0.0,96,0.00,,SKC,0.00,VWS V14.01,2013-04-09 12:17:00,
2013-04-09 05:19:00,41.1,40.0,30.37,East,92,0.0,0.0,96,0.00,,SKC,0.00,VWS V14.01,2013-04-09 12:19:00,
2013-04-09 05:20:00,41.1,40.0,30.38,East,92,0.0,0.0,96,0.00,,SKC,0.00,VWS V14.01,2013-04-09 12:20:00,
2013-04-09 05:21:00,41.1,40.0,30.38,East,92,0.0,0.0,96,0.00,,SKC,0.00,VWS V14.01,2013-04-09 12:21:00,
2013-04-09 05:23:00,41.1,40.0,30.38,East,92,0.0,0.0,96,0.00,,SKC,0.00,VWS V14.01,2013-04-09 12:23:00,
2013-04-09 05:25:00,41.1,40.0,30.38,East,92,0.0,0.0,96,0.00,,SKC,0.00,VWS V14.01,2013-04-09 12:25:00,
2013-04-09 05:26:00,41.1,40.0,30.38,East,92,0.0,0.0,96,0.00,,SKC,0.00,VWS V14.01,2013-04-09 12:26:00,
2013-04-09 05:27:00,41.1,40.0,30.37,East,92,0.0,0.0,96,0.00,,SKC,0.00,VWS V14.01,2013-04-09 12:27:00,
2013-04-09 05:28:00,41.1,40.0,30.37,East,92,0.0,0.0,96,0.00,,SKC,0.00,VWS V14.01,2013-04-09 12:28:00,
2013-04-09 05:30:00,41.1,40.0,30.38,East,92,0.0,0.0,96,0.00,,SKC,0.00,VWS V14.01,2013-04-09 12:30:00,
2013-04-09 05:32:00,41.1,40.0,30.37,East,92,0.0,0.0,96,0.00,,SKC,0.00,VWS V14.01,2013-04-09 12:32:00,
2013-04-09 05:33:00,41.1,40.0,30.37,East,92,0.0,0.0,96,0.00,,SKC,0.00,VWS V14.01,2013-04-09 12:33:00,
2013-04-09 05:36:00,41.1,40.0,30.38,East,92,0.0,0.0,96,0.00,,SKC,0.00,VWS V14.01,2013-04-09 12:36:00,
2013-04-09 05:37:00,41.1,40.0,30.38,East,92,0.0,0.0,96,0.00,,SKC,0.00,VWS V14.01,2013-04-09 12:37:00,
2013-04-09 05:38:00,41.0,40.0,30.38,East,92,0.0,0.0,96,0.00,,SKC,0.00,VWS V14.01,2013-04-09 12:38:00,
2013-04-09 05:42:00,41.0,40.0,30.38,East,92,0.0,0.0,96,0.00,,SKC,0.00,VWS V14.01,2013-04-09 12:42:00,
2013-04-09 05:43:00,41.0,40.0,30.38,East,92,0.0,0.0,96,0.00,,SKC,0.00,VWS V14.01,2013-04-09 12:43:00,
2013-04-09 05:45:00,40.9,39.8,30.38,East,92,0.0,0.0,96,0.00,,SKC,0.00,VWS V14.01,2013-04-09 12:45:00,
2013-04-09 05:47:00,41.0,40.0,30.38,East,92,0.0,0.0,96,0.00,,SKC,0.00,VWS V14.01,2013-04-09 12:47:00,
2013-04-09 05:48:00,40.9,39.8,30.38,East,92,0.0,0.0,96,0.00,,SKC,0.00,VWS V14.01,2013-04-09 12:48:00,
2013-04-09 05:50:00,40.9,39.8,30.38,East,92,0.0,0.0,96,0.00,,SKC,0.00,VWS V14.01,2013-04-09 12:50:00,
2013-04-09 05:53:00,40.9,39.8,30.38,East,92,0.0,0.0,96,0.00,,SKC,0.00,VWS V14.01,2013-04-09 12:53:00,
2013-04-09 05:54:00,40.9,39.8,30.38,East,92,0.0,0.0,96,0.00,,SKC,0.00,VWS V14.01,2013-04-09 12:54:00,
2013-04-09 05:55:00,40.9,39.8,30.38,East,92,0.0,0.0,96,0.00,,SKC,0.00,VWS V14.01,2013-04-09 12:55:00,
2013-04-09 05:58:00,40.9,39.8,30.38,East,92,0.0,0.0,96,0.00,,SKC,0.00,VWS V14.01,2013-04-09 12:58:00,
2013-04-09 05:59:00,40.9,39.8,30.38,East,92,0.0,0.0,96,0.00,,SKC,0.00,VWS V14.01,2013-04-09 12:59:00,
2013-04-09 06:00:00,40.9,39.8,30.38,East,92,0.0,0.0,96,0.00,,SKC,0.00,VWS V14.01,2013-04-09 13:00:00,
2013-04-09 06:03:00,40.9,39.8,30.38,East,92,0.0,0.0,96,0.00,,SKC,0.00,VWS V14.01,2013-04-09 13:03:00,
2013-04-09 06:04:00,40.9,39.8,30.38,East,92,0.0,0.0,96,0.00,,SKC,0.00,VWS V14.01,2013-04-09 13:04:00,
2013-04-09 06:05:00,40.9,39.8,30.38,East,92,0.0,0.0,96,0.00,,SKC,0.00,VWS V14.01,2013-04-09 13:05:00,
2013-04-09 06:08:00,40.9,39.8,30.38,East,92,0.0,0.0,96,0.00,,SKC,0.00,VWS V14.01,2013-04-09 13:08:00,
2013-04-09 06:09:00,40.9,39.8,30.38,East,92,0.0,0.0,96,0.00,,SKC,0.00,VWS V14.01,2013-04-09 13:09:00,
2013-04-09 06:10:00,40.9,39.8,30.38,East,92,0.0,0.0,96,0.00,,SKC,0.00,VWS V14.01,2013-04-09 13:10:00,
2013-04-09 06:11:00,40.9,39.8,30.38,East,92,0.0,0.0,96,0.00,,SKC,0.00,VWS V14.01,2013-04-09 13:11:00,
2013-04-09 06:14:00,41.0,40.0,30.38,East,92,0.0,0.0,96,0.00,,SKC,0.00,VWS V14.01,2013-04-09 13:14:00,
2013-04-09 06:15:00,41.0,40.0,30.38,East,92,0.0,0.0,96,0.00,,SKC,0.00,VWS V14.01,2013-04-09 13:15:00,
2013-04-09 06:16:00,41.0,40.0,30.38,East,92,0.0,0.0,96,0.00,,SKC,0.00,VWS V14.01,2013-04-09 13:16:00,
2013-04-09 06:19:00,41.0,40.0,30.38,East,92,0.0,0.0,96,0.00,,SKC,0.00,VWS V14.01,2013-04-09 13:19:00,
2013-04-09 06:20:00,40.9,39.8,30.38,East,92,0.0,0.0,96,0.00,,SKC,0.00,VWS V14.01,2013-04-09 13:20:00,
2013-04-09 06:22:00,40.9,39.8,30.38,East,92,0.0,0.0,96,0.00,,SKC,0.00,VWS V14.01,2013-04-09 13:22:00,
2013-04-09 06:25:00,40.9,39.8,30.38,East,92,0.0,0.0,96,0.00,,SKC,0.00,VWS V14.01,2013-04-09 13:25:00,
2013-04-09 06:27:00,40.9,39.8,30.38,East,92,0.0,0.0,96,0.00,,SKC,0.00,VWS V14.01,2013-04-09 13:27:00,
2013-04-09 06:30:00,40.8,39.8,30.38,East,92,0.0,0.0,96,0.00,,SKC,0.00,VWS V14.01,2013-04-09 13:30:00,
2013-04-09 06:31:00,40.8,39.8,30.38,East,92,0.0,0.0,96,0.00,,SKC,0.00,VWS V14.01,2013-04-09 13:31:00,
2013-04-09 06:33:00,40.8,39.8,30.38,East,92,0.0,0.0,96,0.00,,SKC,0.00,VWS V14.01,2013-04-09 13:33:00,
2013-04-09 06:36:00,40.7,39.7,30.38,East,92,0.0,1.0,96,0.00,,SKC,0.00,VWS V14.01,2013-04-09 13:36:00,
2013-04-09 06:38:00,40.7,39.7,30.38,East,92,0.0,0.0,96,0.00,,SKC,0.00,VWS V14.01,2013-04-09 13:38:00,
2013-04-09 06:39:00,40.7,39.7,30.38,East,92,0.0,0.0,96,0.00,,SKC,0.00,VWS V14.01,2013-04-09 13:39:00,
2013-04-09 06:42:00,40.7,39.7,30.38,East,92,0.0,0.0,96,0.00,,SKC,0.00,VWS V14.01,2013-04-09 13:42:00,
2013-04-09 06:43:00,40.7,39.7,30.38,East,92,0.0,0.0,96,0.00,,SKC,0.00,VWS V14.01,2013-04-09 13:43:00,
2013-04-09 06:44:00,40.6,39.5,30.38,East,92,0.0,0.0,96,0.00,,SKC,0.00,VWS V14.01,2013-04-09 13:44:00,
2013-04-09 06:45:00,40.6,39.5,30.38,East,92,0.0,0.0,96,0.00,,SKC,0.00,VWS V14.01,2013-04-09 13:45:00,
2013-04-09 06:47:00,40.6,39.5,30.38,East,92,0.0,0.0,96,0.00,,SKC,0.00,VWS V14.01,2013-04-09 13:47:00,
2013-04-09 06:50:00,40.6,39.5,30.38,East,92,0.0,0.0,96,0.00,,SKC,0.00,VWS V14.01,2013-04-09 13:50:00,
2013-04-09 06:52:00,40.5,39.5,30.39,East,92,0.0,0.0,96,0.00,,SKC,0.00,VWS V14.01,2013-04-09 13:52:00,
2013-04-09 06:55:00,40.5,39.5,30.38,East,92,0.0,0.0,96,0.00,,SKC,0.00,VWS V14.01,2013-04-09 13:55:00,
2013-04-09 06:56:00,40.5,39.5,30.38,East,92,0.0,0.0,96,0.00,,SKC,0.00,VWS V14.01,2013-04-09 13:56:00,
2013-04-09 06:58:00,40.5,39.5,30.38,East,92,0.0,0.0,96,0.00,,SKC,0.00,VWS V14.01,2013-04-09 13:58:00,
2013-04-09 07:00:00,40.5,39.5,30.38,East,92,0.0,0.0,96,0.00,,SKC,0.00,VWS V14.01,2013-04-09 14:00:00,
2013-04-09 07:01:00,40.6,39.5,30.38,East,92,0.0,0.0,96,0.00,,SKC,0.00,VWS V14.01,2013-04-09 14:01:00,
2013-04-09 07:02:00,40.6,39.5,30.38,East,92,0.0,0.0,96,0.00,,SKC,0.00,VWS V14.01,2013-04-09 14:02:00,
2013-04-09 07:03:00,40.6,39.5,30.38,East,92,0.0,0.0,96,0.00,,SKC,0.00,VWS V14.01,2013-04-09 14:03:00,
2013-04-09 07:06:00,40.6,39.5,30.38,East,92,0.0,0.0,96,0.00,,SKC,0.00,VWS V14.01,2013-04-09 14:06:00,
2013-04-09 07:07:00,40.6,39.5,30.38,East,92,0.0,0.0,96,0.00,,SKC,0.00,VWS V14.01,2013-04-09 14:07:00,
2013-04-09 07:09:00,40.7,39.7,30.38,East,92,0.0,0.0,96,0.00,,SKC,0.00,VWS V14.01,2013-04-09 14:09:00,
2013-04-09 07:11:00,40.8,39.8,30.38,East,92,0.0,0.0,96,0.00,,SKC,0.00,VWS V14.01,2013-04-09 14:11:00,
2013-04-09 07:12:00,40.9,39.8,30.38,East,92,0.0,0.0,96,0.00,,SKC,0.00,VWS V14.01,2013-04-09 14:12:00,
2013-04-09 07:14:00,41.1,40.3,30.38,East,92,0.0,0.0,97,0.00,,SKC,0.00,VWS V14.01,2013-04-09 14:14:00,
2013-04-09 07:15:00,41.5,40.7,30.37,East,92,0.0,0.0,97,0.00,,SKC,0.00,VWS V14.01,2013-04-09 14:15:00,
2013-04-09 07:17:00,41.2,40.4,30.37,East,92,0.0,0.0,97,0.00,,SKC,0.00,VWS V14.01,2013-04-09 14:17:00,
2013-04-09 07:18:00,41.3,40.5,30.37,East,92,0.0,0.0,97,0.00,,SKC,0.00,VWS V14.01,2013-04-09 14:18:00,
2013-04-09 07:20:00,41.4,40.6,30.37,East,92,0.0,0.0,97,0.00,,SKC,0.00,VWS V14.01,2013-04-09 14:20:00,
2013-04-09 07:22:00,41.5,40.7,30.37,East,92,0.0,0.0,97,0.00,,SKC,0.00,VWS V14.01,2013-04-09 14:22:00,
2013-04-09 07:23:00,41.6,40.8,30.38,East,92,0.0,0.0,97,0.00,,SKC,0.00,VWS V14.01,2013-04-09 14:23:00,
2013-04-09 07:25:00,41.7,40.9,30.38,East,92,0.0,0.0,97,0.00,,SKC,0.00,VWS V14.01,2013-04-09 14:25:00,
2013-04-09 07:27:00,41.9,41.1,30.38,East,92,0.0,0.0,97,0.00,,SKC,0.00,VWS V14.01,2013-04-09 14:27:00,
2013-04-09 07:28:00,41.9,41.1,30.38,East,92,0.0,0.0,97,0.00,,SKC,0.00,VWS V14.01,2013-04-09 14:28:00,
2013-04-09 07:29:00,42.0,41.2,30.38,East,92,0.0,0.0,97,0.00,,SKC,0.00,VWS V14.01,2013-04-09 14:29:00,
2013-04-09 07:30:00,42.1,41.3,30.38,East,92,0.0,0.0,97,0.00,,SKC,0.00,VWS V14.01,2013-04-09 14:30:00,
2013-04-09 07:32:00,42.2,41.4,30.38,East,92,0.0,0.0,97,0.00,,SKC,0.00,VWS V14.01,2013-04-09 14:32:00,
2013-04-09 07:33:00,42.3,41.5,30.38,East,92,0.0,0.0,97,0.00,,SKC,0.00,VWS V14.01,2013-04-09 14:33:00,
2013-04-09 07:34:00,42.4,41.6,30.38,East,92,0.0,0.0,97,0.00,,SKC,0.00,VWS V14.01,2013-04-09 14:34:00,
2013-04-09 07:35:00,42.4,41.6,30.38,East,92,0.0,0.0,97,0.00,,SKC,0.00,VWS V14.01,2013-04-09 14:35:00,
2013-04-09 07:37:00,42.5,41.7,30.38,East,92,0.0,0.0,97,0.00,,SKC,0.00,VWS V14.01,2013-04-09 14:37:00,
2013-04-09 07:39:00,42.6,41.8,30.38,East,92,0.0,0.0,97,0.00,,SKC,0.00,VWS V14.01,2013-04-09 14:39:00,
2013-04-09 07:40:00,42.7,41.9,30.38,East,92,0.0,0.0,97,0.00,,SKC,0.00,VWS V14.01,2013-04-09 14:40:00,
2013-04-09 07:41:00,42.7,41.9,30.38,East,92,0.0,0.0,97,0.00,,SKC,0.00,VWS V14.01,2013-04-09 14:41:00,
2013-04-09 07:43:00,42.9,42.1,30.38,East,92,0.0,0.0,97,0.00,,SKC,0.00,VWS V14.01,2013-04-09 14:43:00,
2013-04-09 07:44:00,43.0,42.2,30.38,East,92,0.0,0.0,97,0.00,,SKC,0.00,VWS V14.01,2013-04-09 14:44:00,
2013-04-09 07:45:00,43.1,42.3,30.38,East,92,0.0,0.0,97,0.00,,SKC,0.00,VWS V14.01,2013-04-09 14:45:00,
2013-04-09 07:47:00,43.2,42.4,30.38,East,92,0.0,0.0,97,0.00,,SKC,0.00,VWS V14.01,2013-04-09 14:47:00,
2013-04-09 07:49:00,43.4,42.6,30.37,East,92,0.0,0.0,97,0.00,,SKC,0.00,VWS V14.01,2013-04-09 14:49:00,
2013-04-09 07:50:00,43.4,42.6,30.38,East,92,0.0,0.0,97,0.00,,SKC,0.00,VWS V14.01,2013-04-09 14:50:00,
2013-04-09 07:51:00,43.5,42.7,30.38,East,92,0.0,0.0,97,0.00,,SKC,0.00,VWS V14.01,2013-04-09 14:51:00,
2013-04-09 07:53:00,43.6,42.8,30.38,East,92,0.0,0.0,97,0.00,,SKC,0.00,VWS V14.01,2013-04-09 14:53:00,
2013-04-09 07:54:00,43.7,42.9,30.38,East,92,0.0,0.0,97,0.00,,SKC,0.00,VWS V14.01,2013-04-09 14:54:00,
2013-04-09 07:55:00,43.8,43.0,30.38,East,92,0.0,0.0,97,0.00,,SKC,0.00,VWS V14.01,2013-04-09 14:55:00,
2013-04-09 07:56:00,44.0,43.2,30.38,East,92,0.0,0.0,97,0.00,,SKC,0.00,VWS V14.01,2013-04-09 14:56:00,
2013-04-09 07:58:00,44.1,43.3,30.38,East,92,0.0,0.0,97,0.00,,SKC,0.00,VWS V14.01,2013-04-09 14:58:00,
2013-04-09 07:59:00,44.1,43.3,30.38,East,92,0.0,0.0,97,0.00,,SKC,0.00,VWS V14.01,2013-04-09 14:59:00,
2013-04-09 08:00:00,44.2,43.4,30.38,East,92,0.0,0.0,97,0.00,,SKC,0.00,VWS V14.01,2013-04-09 15:00:00,
2013-04-09 08:01:00,44.2,43.4,30.38,East,92,0.0,0.0,97,0.00,,SKC,0.00,VWS V14.01,2013-04-09 15:01:00,
2013-04-09 08:03:00,44.3,43.5,30.38,East,92,0.0,0.0,97,0.00,,SKC,0.00,VWS V14.01,2013-04-09 15:03:00,
2013-04-09 08:04:00,44.3,43.5,30.38,East,92,0.0,0.0,97,0.00,,SKC,0.00,VWS V14.01,2013-04-09 15:04:00,
2013-04-09 08:06:00,44.4,43.6,30.38,East,92,0.0,0.0,97,0.00,,SKC,0.00,VWS V14.01,2013-04-09 15:06:00,
2013-04-09 08:07:00,44.4,43.6,30.38,East,92,0.0,0.0,97,0.00,,SKC,0.00,VWS V14.01,2013-04-09 15:07:00,
2013-04-09 08:08:00,44.5,43.7,30.38,East,92,0.0,0.0,97,0.00,,SKC,0.00,VWS V14.01,2013-04-09 15:08:00,
2013-04-09 08:09:00,44.5,43.7,30.38,East,92,0.0,0.0,97,0.00,,SKC,0.00,VWS V14.01,2013-04-09 15:09:00,
2013-04-09 08:12:00,44.6,43.8,30.38,East,92,0.0,1.0,97,0.00,,SKC,0.00,VWS V14.01,2013-04-09 15:12:00,
2013-04-09 08:13:00,44.6,43.8,30.38,East,92,0.0,1.0,97,0.00,,SKC,0.00,VWS V14.01,2013-04-09 15:13:00,
2013-04-09 08:14:00,44.6,43.8,30.38,East,92,0.0,1.0,97,0.00,,SKC,0.00,VWS V14.01,2013-04-09 15:14:00,
2013-04-09 08:15:00,44.7,43.9,30.38,East,92,0.0,1.0,97,0.00,,SKC,0.00,VWS V14.01,2013-04-09 15:15:00,
2013-04-09 08:17:00,44.7,43.6,30.38,East,92,0.0,1.0,96,0.00,,SKC,0.00,VWS V14.01,2013-04-09 15:17:00,
2013-04-09 08:18:00,44.8,43.7,30.38,East,92,0.0,1.0,96,0.00,,SKC,0.00,VWS V14.01,2013-04-09 15:18:00,
2013-04-09 08:19:00,44.8,43.5,30.39,East,92,0.0,1.0,95,0.00,,SKC,0.00,VWS V14.01,2013-04-09 15:19:00,
2013-04-09 08:20:00,44.9,43.6,30.38,East,92,0.0,1.0,95,0.00,,SKC,0.00,VWS V14.01,2013-04-09 15:20:00,
2013-04-09 08:22:00,45.0,43.7,30.39,East,92,0.0,1.0,95,0.00,,SKC,0.00,VWS V14.01,2013-04-09 15:22:00,
2013-04-09 08:23:00,45.0,43.7,30.39,NE,55,0.0,0.0,95,0.00,,SKC,0.00,VWS V14.01,2013-04-09 15:23:00,
2013-04-09 08:25:00,45.1,43.8,30.39,NE,55,0.0,1.0,95,0.00,,SKC,0.00,VWS V14.01,2013-04-09 15:25:00,
2013-04-09 08:27:00,45.3,44.0,30.39,NE,55,0.0,1.0,95,0.00,,SKC,0.00,VWS V14.01,2013-04-09 15:27:00,
2013-04-09 08:30:00,45.5,43.9,30.38,NE,55,1.0,2.0,94,0.00,,SKC,0.00,VWS V14.01,2013-04-09 15:30:00,
2013-04-09 08:31:00,45.5,43.6,30.39,North,10,0.0,3.0,93,0.00,,SKC,0.00,VWS V14.01,2013-04-09 15:31:00,
2013-04-09 08:32:00,45.6,43.7,30.39,North,10,0.0,3.0,93,0.00,,SKC,0.00,VWS V14.01,2013-04-09 15:32:00,
2013-04-09 08:35:00,45.7,43.8,30.39,North,10,0.0,3.0,93,0.00,,SKC,0.00,VWS V14.01,2013-04-09 15:35:00,
2013-04-09 08:36:00,45.7,43.8,30.39,North,10,1.0,3.0,93,0.00,,SKC,0.00,VWS V14.01,2013-04-09 15:36:00,
2013-04-09 08:37:00,45.8,43.6,30.39,North,10,0.0,0.0,92,0.00,,SKC,0.00,VWS V14.01,2013-04-09 15:37:00,
2013-04-09 08:40:00,45.9,43.7,30.39,North,10,0.0,2.0,92,0.00,,SKC,0.00,VWS V14.01,2013-04-09 15:40:00,
2013-04-09 08:41:00,45.9,43.7,30.39,North,9,0.0,2.0,92,0.00,,SKC,0.00,VWS V14.01,2013-04-09 15:41:00,
2013-04-09 08:42:00,45.9,43.7,30.39,North,9,0.0,2.0,92,0.00,,SKC,0.00,VWS V14.01,2013-04-09 15:42:00,
2013-04-09 08:45:00,46.0,43.8,30.39,North,5,1.0,2.0,92,0.00,,SKC,0.00,VWS V14.01,2013-04-09 15:45:00,
2013-04-09 08:47:00,46.0,43.5,30.39,North,5,0.0,2.0,91,0.00,,SKC,0.00,VWS V14.01,2013-04-09 15:47:00,
2013-04-09 08:50:00,46.0,43.8,30.39,North,5,0.0,2.0,92,0.00,,SKC,0.00,VWS V14.01,2013-04-09 15:50:00,
2013-04-09 08:52:00,46.1,43.9,30.39,North,5,0.0,2.0,92,0.00,,SKC,0.00,VWS V14.01,2013-04-09 15:52:00,
2013-04-09 08:53:00,46.1,43.9,30.39,North,5,0.0,1.0,92,0.00,,SKC,0.00,VWS V14.01,2013-04-09 15:53:00,
2013-04-09 08:55:00,46.1,43.6,30.39,North,5,0.0,1.0,91,0.00,,SKC,0.00,VWS V14.01,2013-04-09 15:55:00,
2013-04-09 08:56:00,46.1,43.6,30.39,North,5,0.0,1.0,91,0.00,,SKC,0.00,VWS V14.01,2013-04-09 15:56:00,
2013-04-09 08:57:00,46.2,43.7,30.39,North,5,0.0,1.0,91,0.00,,SKC,0.00,VWS V14.01,2013-04-09 15:57:00,
2013-04-09 08:58:00,46.2,43.7,30.39,North,5,0.0,1.0,91,0.00,,SKC,0.00,VWS V14.01,2013-04-09 15:58:00,
2013-04-09 09:00:00,46.3,43.5,30.39,North,5,0.0,1.0,90,0.00,,SKC,0.00,VWS V14.01,2013-04-09 16:00:00,
2013-04-09 09:01:00,46.3,43.5,30.39,North,5,0.0,1.0,90,0.00,,SKC,0.00,VWS V14.01,2013-04-09 16:01:00,
2013-04-09 09:02:00,46.3,43.5,30.39,North,5,0.0,1.0,90,0.00,,SKC,0.00,VWS V14.01,2013-04-09 16:02:00,
2013-04-09 09:04:00,46.3,43.5,30.39,North,5,0.0,1.0,90,0.00,,SKC,0.00,VWS V14.01,2013-04-09 16:04:00,
2013-04-09 09:07:00,46.4,43.3,30.39,North,5,0.0,1.0,89,0.00,,SKC,0.00,VWS V14.01,2013-04-09 16:07:00,
2013-04-09 09:08:00,46.4,43.3,30.39,North,5,0.0,0.0,89,0.00,,SKC,0.00,VWS V14.01,2013-04-09 16:08:00,
2013-04-09 09:09:00,46.4,43.3,30.39,North,5,0.0,0.0,89,0.00,,SKC,0.00,VWS V14.01,2013-04-09 16:09:00,
2013-04-09 09:12:00,46.5,43.7,30.40,North,5,0.0,0.0,90,0.00,,SKC,0.00,VWS V14.01,2013-04-09 16:12:00,
2013-04-09 09:13:00,46.5,43.7,30.40,North,5,0.0,0.0,90,0.00,,SKC,0.00,VWS V14.01,2013-04-09 16:13:00,
2013-04-09 09:14:00,46.5,43.4,30.40,North,5,0.0,0.0,89,0.00,,SKC,0.00,VWS V14.01,2013-04-09 16:14:00,
2013-04-09 09:15:00,46.7,43.6,30.40,North,5,0.0,0.0,89,0.00,,SKC,0.00,VWS V14.01,2013-04-09 16:15:00,
2013-04-09 09:17:00,46.6,43.5,30.40,North,5,0.0,0.0,89,0.00,,SKC,0.00,VWS V14.01,2013-04-09 16:17:00,
2013-04-09 09:18:00,46.6,43.2,30.40,North,5,0.0,0.0,88,0.00,,SKC,0.00,VWS V14.01,2013-04-09 16:18:00,
2013-04-09 09:19:00,46.7,43.6,30.40,North,5,0.0,0.0,89,0.00,,SKC,0.00,VWS V14.01,2013-04-09 16:19:00,
2013-04-09 09:22:00,46.7,43.6,30.40,North,5,0.0,0.0,89,0.00,,SKC,0.00,VWS V14.01,2013-04-09 16:22:00,
2013-04-09 09:24:00,46.8,43.7,30.40,North,5,0.0,1.0,89,0.00,,SKC,0.00,VWS V14.01,2013-04-09 16:24:00,
2013-04-09 09:28:00,47.0,43.9,30.40,North,5,0.0,1.0,89,0.00,,SKC,0.00,VWS V14.01,2013-04-09 16:28:00,
2013-04-09 09:29:00,47.0,43.6,30.40,North,5,0.0,1.0,88,0.00,,SKC,0.00,VWS V14.01,2013-04-09 16:29:00,
2013-04-09 09:30:00,47.1,43.7,30.40,North,5,0.0,1.0,88,0.00,,SKC,0.00,VWS V14.01,2013-04-09 16:30:00,
2013-04-09 09:33:00,47.2,43.8,30.40,NNW,339,0.0,2.0,88,0.00,,SKC,0.00,VWS V14.01,2013-04-09 16:33:00,
2013-04-09 09:34:00,47.3,43.9,30.41,NNW,337,0.0,2.0,88,0.00,,SKC,0.00,VWS V14.01,2013-04-09 16:34:00,
2013-04-09 09:35:00,47.3,43.6,30.41,NNW,329,0.0,2.0,87,0.00,,SKC,0.00,VWS V14.01,2013-04-09 16:35:00,
2013-04-09 09:38:00,47.3,43.6,30.41,NNW,329,0.0,1.0,87,0.00,,SKC,0.00,VWS V14.01,2013-04-09 16:38:00,
2013-04-09 09:40:00,47.3,43.9,30.41,NNW,329,0.0,1.0,88,0.00,,SKC,0.00,VWS V14.01,2013-04-09 16:40:00,
2013-04-09 09:41:00,47.4,44.0,30.41,NNW,329,0.0,1.0,88,0.00,,SKC,0.00,VWS V14.01,2013-04-09 16:41:00,
2013-04-09 09:43:00,47.4,44.0,30.41,NNW,329,0.0,1.0,88,0.00,,SKC,0.00,VWS V14.01,2013-04-09 16:43:00,
2013-04-09 09:45:00,47.7,44.0,30.41,NNW,329,0.0,3.0,87,0.00,,SKC,0.00,VWS V14.01,2013-04-09 16:45:00,
2013-04-09 09:47:00,47.5,43.5,30.41,NNW,329,0.0,3.0,86,0.00,,SKC,0.00,VWS V14.01,2013-04-09 16:47:00,
2013-04-09 09:48:00,47.6,43.9,30.41,NNW,329,0.0,3.0,87,0.00,,SKC,0.00,VWS V14.01,2013-04-09 16:48:00,
2013-04-09 09:49:00,47.6,43.9,30.41,NNW,329,0.0,3.0,87,0.00,,SKC,0.00,VWS V14.01,2013-04-09 16:49:00,
2013-04-09 09:52:00,47.7,44.0,30.41,NNW,329,0.0,3.0,87,0.00,,SKC,0.00,VWS V14.01,2013-04-09 16:52:00,
2013-04-09 09:53:00,47.7,43.7,30.41,NNW,329,0.0,0.0,86,0.00,,SKC,0.00,VWS V14.01,2013-04-09 16:53:00,
2013-04-09 09:54:00,47.7,43.7,30.41,NNW,329,0.0,1.0,86,0.00,,SKC,0.00,VWS V14.01,2013-04-09 16:54:00,
2013-04-09 09:58:00,47.8,43.5,30.41,NNW,329,0.0,1.0,85,0.00,,SKC,0.00,VWS V14.01,2013-04-09 16:58:00,
2013-04-09 09:59:00,47.8,43.8,30.41,NNW,329,0.0,1.0,86,0.00,,SKC,0.00,VWS V14.01,2013-04-09 16:59:00,
2013-04-09 10:00:00,48.2,43.9,30.40,NNW,329,0.0,1.0,85,0.00,,SKC,0.00,VWS V14.01,2013-04-09 17:00:00,
2013-04-09 10:01:00,47.9,43.9,30.41,NNW,329,0.0,1.0,86,0.00,,SKC,0.00,VWS V14.01,2013-04-09 17:01:00,
2013-04-09 10:03:00,48.0,44.0,30.41,NNW,329,0.0,1.0,86,0.00,,SKC,0.00,VWS V14.01,2013-04-09 17:03:00,
2013-04-09 10:04:00,48.0,44.0,30.41,NNW,329,0.0,1.0,86,0.00,,SKC,0.00,VWS V14.01,2013-04-09 17:04:00,
2013-04-09 10:06:00,48.2,43.9,30.40,NNW,329,0.0,1.0,85,0.00,,SKC,0.00,VWS V14.01,2013-04-09 17:06:00,
2013-04-09 10:09:00,48.3,44.0,30.40,NNW,329,0.0,0.0,85,0.00,,SKC,0.00,VWS V14.01,2013-04-09 17:09:00,
2013-04-09 10:10:00,48.3,44.0,30.40,NNW,329,0.0,0.0,85,0.00,,SKC,0.00,VWS V14.01,2013-04-09 17:10:00,
2013-04-09 10:12:00,48.4,44.1,30.40,NNW,329,0.0,1.0,85,0.00,,SKC,0.00,VWS V14.01,2013-04-09 17:12:00,
2013-04-09 10:14:00,48.5,43.9,30.40,NNW,329,0.0,1.0,84,0.00,,SKC,0.00,VWS V14.01,2013-04-09 17:14:00,
2013-04-09 10:15:00,48.5,44.2,30.40,NNW,329,0.0,1.0,85,0.00,,SKC,0.00,VWS V14.01,2013-04-09 17:15:00,
2013-04-09 10:17:00,48.6,44.0,30.40,NNW,329,0.0,1.0,84,0.00,,SKC,0.00,VWS V14.01,2013-04-09 17:17:00,
2013-04-09 10:19:00,48.7,44.1,30.40,NNW,329,0.0,1.0,84,0.00,,SKC,0.00,VWS V14.01,2013-04-09 17:19:00,
2013-04-09 10:20:00,48.7,44.1,30.40,ESE,121,2.0,2.0,84,0.00,,SKC,0.00,VWS V14.01,2013-04-09 17:20:00,
2013-04-09 10:24:00,49.0,44.4,30.40,SE,126,0.0,2.0,84,0.00,,SKC,0.00,VWS V14.01,2013-04-09 17:24:00,
2013-04-09 10:25:00,49.0,44.4,30.40,SE,126,0.0,2.0,84,0.00,,SKC,0.00,VWS V14.01,2013-04-09 17:25:00,
2013-04-09 10:26:00,49.0,44.1,30.40,SE,126,0.0,2.0,83,0.00,,SKC,0.00,VWS V14.01,2013-04-09 17:26:00,
2013-04-09 10:27:00,49.1,44.5,30.40,SE,126,0.0,2.0,84,0.00,,SKC,0.00,VWS V14.01,2013-04-09 17:27:00,
2013-04-09 10:29:00,49.2,44.3,30.40,SE,126,0.0,2.0,83,0.00,,SKC,0.00,VWS V14.01,2013-04-09 17:29:00,
2013-04-09 10:30:00,49.2,44.3,30.40,SE,126,0.0,2.0,83,0.00,,SKC,0.00,VWS V14.01,2013-04-09 17:30:00,
2013-04-09 10:31:00,49.3,44.4,30.40,SE,126,0.0,2.0,83,0.00,,SKC,0.00,VWS V14.01,2013-04-09 17:31:00,
2013-04-09 10:32:00,49.4,44.5,30.40,SE,126,0.0,2.0,83,0.00,,SKC,0.00,VWS V14.01,2013-04-09 17:32:00,
2013-04-09 10:35:00,49.5,44.9,30.41,SSW,203,1.0,2.0,84,0.00,,SKC,0.00,VWS V14.01,2013-04-09 17:35:00,
2013-04-09 10:36:00,49.6,44.7,30.41,SSW,211,1.0,2.0,83,0.00,,SKC,0.00,VWS V14.01,2013-04-09 17:36:00,
2013-04-09 10:37:00,49.6,44.3,30.41,SSW,211,1.0,2.0,82,0.00,,SKC,0.00,VWS V14.01,2013-04-09 17:37:00,
2013-04-09 10:40:00,49.7,44.8,30.41,South,182,1.0,2.0,83,0.00,,SKC,0.00,VWS V14.01,2013-04-09 17:40:00,
2013-04-09 10:41:00,49.8,44.8,30.41,SSW,200,3.0,3.0,83,0.00,,SKC,0.00,VWS V14.01,2013-04-09 17:41:00,
2013-04-09 10:44:00,49.8,44.5,30.41,SSW,203,1.0,3.0,82,0.00,,SKC,0.00,VWS V14.01,2013-04-09 17:44:00,
2013-04-09 10:45:00,49.8,44.8,30.41,SSW,203,0.0,3.0,83,0.00,,SKC,0.00,VWS V14.01,2013-04-09 17:45:00,
2013-04-09 10:46:00,49.8,44.8,30.41,SSW,192,0.0,3.0,83,0.00,,SKC,0.00,VWS V14.01,2013-04-09 17:46:00,
2013-04-09 10:50:00,50.1,45.5,30.41,WNW,292,0.0,3.0,84,0.00,,SKC,0.00,VWS V14.01,2013-04-09 17:50:00,
2013-04-09 10:51:00,50.2,45.6,30.41,WNW,292,0.0,3.0,84,0.00,,SKC,0.00,VWS V14.01,2013-04-09 17:51:00,
2013-04-09 10:52:00,50.3,45.0,30.41,WNW,292,0.0,3.0,82,0.00,,SKC,0.00,VWS V14.01,2013-04-09 17:52:00,
2013-04-09 10:55:00,50.6,45.0,30.41,ESE,117,0.0,3.0,81,0.00,,SKC,0.00,VWS V14.01,2013-04-09 17:55:00,
2013-04-09 10:57:00,50.8,45.2,30.41,SE,136,0.0,3.0,81,0.00,,SKC,0.00,VWS V14.01,2013-04-09 17:57:00,
2013-04-09 10:59:00,50.9,45.3,30.41,SSE,168,1.0,3.0,81,0.00,,SKC,0.00,VWS V14.01,2013-04-09 17:59:00,
2013-04-09 11:00:00,50.9,45.0,30.41,SSE,168,0.0,3.0,80,0.00,,SKC,0.00,VWS V14.01,2013-04-09 18:00:00,
2013-04-09 11:02:00,51.0,44.7,30.41,SSE,168,1.0,3.0,79,0.00,,SKC,0.00,VWS V14.01,2013-04-09 18:02:00,
2013-04-09 11:04:00,51.0,44.7,30.41,SSE,168,0.0,3.0,79,0.00,,SKC,0.00,VWS V14.01,2013-04-09 18:04:00,
2013-04-09 11:06:00,51.0,44.7,30.41,SSE,168,0.0,3.0,79,0.00,,SKC,0.00,VWS V14.01,2013-04-09 18:06:00,
2013-04-09 11:07:00,51.1,45.8,30.41,SSE,168,0.0,3.0,82,0.00,,SKC,0.00,VWS V14.01,2013-04-09 18:07:00,
2013-04-09 11:08:00,51.2,45.6,30.41,SSE,168,0.0,1.0,81,0.00,,SKC,0.00,VWS V14.01,2013-04-09 18:08:00,
2013-04-09 11:10:00,51.3,45.7,30.41,East,79,2.0,3.0,81,0.00,,SKC,0.00,VWS V14.01,2013-04-09 18:10:00,
2013-04-09 11:11:00,51.4,45.5,30.41,East,83,0.0,3.0,80,0.00,,SKC,0.00,VWS V14.01,2013-04-09 18:11:00,
2013-04-09 11:12:00,51.5,45.5,30.41,East,83,0.0,3.0,80,0.00,,SKC,0.00,VWS V14.01,2013-04-09 18:12:00,
2013-04-09 11:13:00,51.5,45.5,30.41,East,83,2.0,3.0,80,0.00,,SKC,0.00,VWS V14.01,2013-04-09 18:13:00,
2013-04-09 11:15:00,51.6,45.0,30.41,NE,54,0.0,3.0,78,0.00,,SKC,0.00,VWS V14.01,2013-04-09 18:15:00,
2013-04-09 11:16:00,51.7,45.1,30.41,NE,54,0.0,3.0,78,0.00,,SKC,0.00,VWS V14.01,2013-04-09 18:16:00,
2013-04-09 11:17:00,51.7,44.7,30.41,NE,51,1.0,3.0,77,0.00,,SKC,0.00,VWS V14.01,2013-04-09 18:17:00,
2013-04-09 11:18:00,51.8,45.2,30.41,NNE,17,0.0,3.0,78,0.00,,SKC,0.00,VWS V14.01,2013-04-09 18:18:00,
2013-04-09 11:21:00,52.0,45.7,30.41,NNE,17,1.0,3.0,79,0.00,,SKC,0.00,VWS V14.01,2013-04-09 18:21:00,
2013-04-09 11:22:00,52.1,45.8,30.41,NNE,16,0.0,0.0,79,0.00,,SKC,0.00,VWS V14.01,2013-04-09 18:22:00,
2013-04-09 11:23:00,52.1,45.8,30.41,WNW,294,2.0,2.0,79,0.00,,SKC,0.00,VWS V14.01,2013-04-09 18:23:00,
2013-04-09 11:26:00,52.1,45.1,30.41,SE,133,0.0,6.0,77,0.00,,SKC,0.00,VWS V14.01,2013-04-09 18:26:00,
2013-04-09 11:27:00,52.1,45.1,30.41,SE,133,0.0,6.0,77,0.00,,SKC,0.00,VWS V14.01,2013-04-09 18:27:00,
2013-04-09 11:28:00,52.1,45.8,30.41,ENE,78,0.0,6.0,79,0.00,,SKC,0.00,VWS V14.01,2013-04-09 18:28:00,
2013-04-09 11:30:00,52.5,45.2,30.41,ESE,104,0.0,6.0,76,0.00,,SKC,0.00,VWS V14.01,2013-04-09 18:30:00,
2013-04-09 11:32:00,52.2,44.5,30.41,ESE,123,0.0,6.0,75,0.00,,SKC,0.00,VWS V14.01,2013-04-09 18:32:00,
2013-04-09 11:33:00,52.3,45.0,30.41,ESE,123,0.0,6.0,76,0.00,,SKC,0.00,VWS V14.01,2013-04-09 18:33:00,
2013-04-09 11:37:00,52.5,45.2,30.41,ESE,104,0.0,0.0,76,0.00,,SKC,0.00,VWS V14.01,2013-04-09 18:37:00,
2013-04-09 11:38:00,52.5,44.8,30.41,ESE,104,0.0,0.0,75,0.00,,SKC,0.00,VWS V14.01,2013-04-09 18:38:00,
2013-04-09 11:39:00,52.5,44.5,30.41,ESE,104,0.0,1.0,74,0.00,,SKC,0.00,VWS V14.01,2013-04-09 18:39:00,
2013-04-09 11:40:00,52.5,45.2,30.41,ESE,104,0.0,1.0,76,0.00,,SKC,0.00,VWS V14.01,2013-04-09 18:40:00,
2013-04-09 11:42:00,52.5,44.1,30.41,SE,138,1.0,3.0,73,0.00,,SKC,0.00,VWS V14.01,2013-04-09 18:42:00,
2013-04-09 11:43:00,52.5,44.5,30.41,East,101,2.0,3.0,74,0.00,,SKC,0.00,VWS V14.01,2013-04-09 18:43:00,
2013-04-09 11:44:00,52.6,45.3,30.41,ENE,61,1.0,3.0,76,0.00,,SKC,0.00,VWS V14.01,2013-04-09 18:44:00,
2013-04-09 11:45:00,52.6,45.3,30.41,ENE,61,0.0,3.0,76,0.00,,SKC,0.00,VWS V14.01,2013-04-09 18:45:00,
2013-04-09 11:47:00,52.6,44.6,30.40,WNW,286,0.0,3.0,74,0.00,,SKC,0.00,VWS V14.01,2013-04-09 18:47:00,
2013-04-09 11:48:00,52.7,44.3,30.40,SW,226,1.0,3.0,73,0.00,,SKC,0.00,VWS V14.01,2013-04-09 18:48:00,
2013-04-09 11:49:00,52.7,44.7,30.40,SW,226,0.0,3.0,74,0.00,,SKC,0.00,VWS V14.01,2013-04-09 18:49:00,
2013-04-09 11:50:00,52.7,44.7,30.40,SW,226,0.0,3.0,74,0.00,,SKC,0.00,VWS V14.01,2013-04-09 18:50:00,
2013-04-09 11:53:00,52.9,45.5,30.40,SE,134,2.0,2.0,76,0.00,,SKC,0.00,VWS V14.01,2013-04-09 18:53:00,
2013-04-09 11:54:00,53.0,45.0,30.40,South,183,1.0,2.0,74,0.00,,SKC,0.00,VWS V14.01,2013-04-09 18:54:00,
2013-04-09 11:55:00,53.1,45.0,30.40,SE,124,1.0,2.0,74,0.00,,SKC,0.00,VWS V14.01,2013-04-09 18:55:00,
2013-04-09 11:59:00,53.4,45.0,30.40,ESE,122,3.0,5.0,73,0.00,,SKC,0.00,VWS V14.01,2013-04-09 18:59:00,
2013-04-09 12:00:00,53.4,45.0,30.40,SE,134,5.0,5.0,73,0.00,,SKC,0.00,VWS V14.01,2013-04-09 19:00:00,
2013-04-09 12:01:00,53.4,44.6,30.40,ESE,117,4.0,5.0,72,0.00,,SKC,0.00,VWS V14.01,2013-04-09 19:01:00,
2013-04-09 12:04:00,53.1,44.7,30.40,South,171,0.0,5.0,73,0.00,,SKC,0.00,VWS V14.01,2013-04-09 19:04:00,
2013-04-09 12:05:00,53.1,44.7,30.40,South,171,0.0,5.0,73,0.00,,SKC,0.00,VWS V14.01,2013-04-09 19:05:00,
2013-04-09 12:06:00,53.2,45.1,30.40,ESE,103,2.0,5.0,74,0.00,,SKC,0.00,VWS V14.01,2013-04-09 19:06:00,
2013-04-09 12:09:00,53.2,44.4,30.40,ESE,114,2.0,3.0,72,0.00,,SKC,0.00,VWS V14.01,2013-04-09 19:09:00,
2013-04-09 12:10:00,53.2,45.1,30.40,ESE,106,2.0,3.0,74,0.00,,SKC,0.00,VWS V14.01,2013-04-09 19:10:00,
2013-04-09 12:11:00,53.2,45.1,30.40,SE,133,2.0,3.0,74,0.00,,SKC,0.00,VWS V14.01,2013-04-09 19:11:00,
2013-04-09 12:12:00,53.2,44.8,30.40,SSE,148,0.0,3.0,73,0.00,,SKC,0.00,VWS V14.01,2013-04-09 19:12:00,
2013-04-09 12:15:00,53.3,45.2,30.40,East,89,3.0,3.0,74,0.00,,SKC,0.00,VWS V14.01,2013-04-09 19:15:00,
2013-04-09 12:17:00,53.5,45.8,30.40,NE,43,2.0,5.0,75,0.00,,SKC,0.00,VWS V14.01,2013-04-09 19:17:00,
2013-04-09 12:18:00,53.6,45.9,30.40,NE,43,0.0,5.0,75,0.00,,SKC,0.00,VWS V14.01,2013-04-09 19:18:00,
2013-04-09 12:20:00,53.8,46.1,30.40,NE,43,0.0,5.0,75,0.00,,SKC,0.00,VWS V14.01,2013-04-09 19:20:00,
2013-04-09 12:22:00,53.9,45.8,30.40,NE,42,0.0,5.0,74,0.00,,SKC,0.00,VWS V14.01,2013-04-09 19:22:00,
2013-04-09 12:23:00,54.0,45.5,30.40,NE,42,0.0,0.0,73,0.00,,SKC,0.00,VWS V14.01,2013-04-09 19:23:00,
2013-04-09 12:25:00,54.1,46.0,30.40,East,94,1.0,3.0,74,0.00,,SKC,0.00,VWS V14.01,2013-04-09 19:25:00,
2013-04-09 12:27:00,54.2,46.1,30.40,SE,136,3.0,3.0,74,0.00,,SKC,0.00,VWS V14.01,2013-04-09 19:27:00,
2013-04-09 12:28:00,54.3,45.5,30.40,ESE,117,2.0,4.0,72,0.00,,SKC,0.00,VWS V14.01,2013-04-09 19:28:00,
2013-04-09 12:30:00,54.3,45.5,30.40,SE,136,0.0,4.0,72,0.00,,SKC,0.00,VWS V14.01,2013-04-09 19:30:00,
2013-04-09 12:32:00,54.2,45.0,30.40,SE,136,2.0,4.0,71,0.00,,SKC,0.00,VWS V14.01,2013-04-09 19:32:00,
2013-04-09 12:33:00,54.1,44.9,30.40,SE,136,1.0,4.0,71,0.00,,SKC,0.00,VWS V14.01,2013-04-09 19:33:00,
2013-04-09 12:34:00,54.1,44.9,30.40,SE,136,0.0,4.0,71,0.00,,SKC,0.00,VWS V14.01,2013-04-09 19:34:00,
2013-04-09 12:35:00,54.1,45.3,30.40,SE,136,0.0,4.0,72,0.00,,SKC,0.00,VWS V14.01,2013-04-09 19:35:00,
2013-04-09 12:38:00,54.1,45.3,30.40,SE,136,0.0,0.0,72,0.00,,SKC,0.00,VWS V14.01,2013-04-09 19:38:00,
2013-04-09 12:39:00,54.2,45.8,30.40,East,80,0.0,0.0,73,0.00,,SKC,0.00,VWS V14.01,2013-04-09 19:39:00,
2013-04-09 12:40:00,54.2,46.1,30.40,NE,40,1.0,3.0,74,0.00,,SKC,0.00,VWS V14.01,2013-04-09 19:40:00,
2013-04-09 12:41:00,54.2,46.1,30.40,NE,40,1.0,3.0,74,0.00,,SKC,0.00,VWS V14.01,2013-04-09 19:41:00,
2013-04-09 12:43:00,54.4,46.7,30.40,NE,40,0.0,3.0,75,0.00,,SKC,0.00,VWS V14.01,2013-04-09 19:43:00,
2013-04-09 12:44:00,54.6,46.8,30.40,NE,40,0.0,3.0,75,0.00,,SKC,0.00,VWS V14.01,2013-04-09 19:44:00,
2013-04-09 12:45:00,54.9,45.7,30.39,SE,132,1.0,4.0,71,0.00,,SKC,0.00,VWS V14.01,2013-04-09 19:45:00,
2013-04-09 12:46:00,54.7,46.9,30.40,NE,40,0.0,3.0,75,0.00,,SKC,0.00,VWS V14.01,2013-04-09 19:46:00,
2013-04-09 12:48:00,54.8,46.0,30.39,NE,40,0.0,3.0,72,0.00,,SKC,0.00,VWS V14.01,2013-04-09 19:48:00,
2013-04-09 12:50:00,54.9,46.1,30.39,NE,40,0.0,3.0,72,0.00,,SKC,0.00,VWS V14.01,2013-04-09 19:50:00,
2013-04-09 12:51:00,54.9,46.1,30.40,ESE,116,2.0,3.0,72,0.00,,SKC,0.00,VWS V14.01,2013-04-09 19:51:00,
2013-04-09 12:53:00,54.9,46.1,30.40,SE,132,1.0,3.0,72,0.00,,SKC,0.00,VWS V14.01,2013-04-09 19:53:00,
2013-04-09 12:55:00,54.9,46.1,30.39,ESE,120,3.0,5.0,72,0.00,,SKC,0.00,VWS V14.01,2013-04-09 19:55:00,
2013-04-09 12:56:00,54.9,45.3,30.39,ESE,111,2.0,5.0,70,0.00,,SKC,0.00,VWS V14.01,2013-04-09 19:56:00,
2013-04-09 12:59:00,55.0,46.2,30.39,East,97,1.0,5.0,72,0.00,,SKC,0.00,VWS V14.01,2013-04-09 19:59:00,
2013-04-09 13:00:00,55.0,46.2,30.39,ESE,121,3.0,5.0,72,0.00,,SKC,0.00,VWS V14.01,2013-04-09 20:00:00,
2013-04-09 13:01:00,55.0,45.4,30.39,SE,141,1.0,5.0,70,0.00,,SKC,0.00,VWS V14.01,2013-04-09 20:01:00,
2013-04-09 13:02:00,55.1,45.5,30.39,SE,141,0.0,5.0,70,0.00,,SKC,0.00,VWS V14.01,2013-04-09 20:02:00,
2013-04-09 13:04:00,55.2,46.7,30.39,NE,42,1.0,5.0,73,0.00,,SKC,0.00,VWS V14.01,2013-04-09 20:04:00,
2013-04-09 13:05:00,55.3,46.4,30.39,NE,40,2.0,5.0,72,0.00,,SKC,0.00,VWS V14.01,2013-04-09 20:05:00,
2013-04-09 13:06:00,55.4,46.9,30.39,East,94,3.0,5.0,73,0.00,,SKC,0.00,VWS V14.01,2013-04-09 20:06:00,
2013-04-09 13:07:00,55.6,47.1,30.38,NE,37,4.0,5.0,73,0.00,,SKC,0.00,VWS V14.01,2013-04-09 20:07:00,
2013-04-09 13:10:00,55.9,47.0,30.39,NNE,33,0.0,4.0,72,0.00,,SKC,0.00,VWS V14.01,2013-04-09 20:10:00,
2013-04-09 13:11:00,56.2,46.9,30.39,NE,40,3.0,5.0,71,0.00,,SKC,0.00,VWS V14.01,2013-04-09 20:11:00,
2013-04-09 13:12:00,56.2,46.9,30.39,ENE,65,0.0,5.0,71,0.00,,SKC,0.00,VWS V14.01,2013-04-09 20:12:00,
2013-04-09 13:15:00,56.5,46.5,30.39,ESE,105,1.0,5.0,69,0.00,,SKC,0.00,VWS V14.01,2013-04-09 20:15:00,
2013-04-09 13:16:00,56.6,47.3,30.38,East,79,2.0,5.0,71,0.00,,SKC,0.00,VWS V14.01,2013-04-09 20:16:00,
2013-04-09 13:17:00,56.7,47.8,30.38,ENE,70,2.0,5.0,72,0.00,,SKC,0.00,VWS V14.01,2013-04-09 20:17:00,
2013-04-09 13:20:00,56.9,47.2,30.39,NNE,32,2.0,5.0,70,0.00,,SKC,0.00,VWS V14.01,2013-04-09 20:20:00,
2013-04-09 13:21:00,56.9,47.2,30.39,NNE,32,0.0,5.0,70,0.00,,SKC,0.00,VWS V14.01,2013-04-09 20:21:00,
2013-04-09 13:22:00,56.9,46.5,30.39,NNE,32,0.0,5.0,68,0.00,,SKC,0.00,VWS V14.01,2013-04-09 20:22:00,
2013-04-09 13:23:00,56.9,46.8,30.39,NNE,32,0.0,0.0,69,0.00,,SKC,0.00,VWS V14.01,2013-04-09 20:23:00,
2013-04-09 13:25:00,56.8,46.4,30.39,NNE,32,0.0,1.0,68,0.00,,SKC,0.00,VWS V14.01,2013-04-09 20:25:00,
2013-04-09 13:26:00,56.8,46.4,30.39,NNE,32,1.0,1.0,68,0.00,,SKC,0.00,VWS V14.01,2013-04-09 20:26:00,
2013-04-09 13:27:00,56.7,46.3,30.39,NNE,32,0.0,2.0,68,0.00,,SKC,0.00,VWS V14.01,2013-04-09 20:27:00,
2013-04-09 13:28:00,56.7,46.7,30.39,NNE,32,2.0,2.0,69,0.00,,SKC,0.00,VWS V14.01,2013-04-09 20:28:00,
2013-04-09 13:30:00,56.6,46.2,30.39,WNW,298,1.0,2.0,68,0.00,,SKC,0.00,VWS V14.01,2013-04-09 20:30:00,
2013-04-09 13:32:00,56.5,45.7,30.39,West,269,0.0,2.0,67,0.00,,SKC,0.00,VWS V14.01,2013-04-09 20:32:00,
2013-04-09 13:36:00,56.2,45.8,30.38,East,81,1.0,2.0,68,0.00,,SKC,0.00,VWS V14.01,2013-04-09 20:36:00,
2013-04-09 13:38:00,56.0,46.0,30.38,ESE,105,3.0,3.0,69,0.00,,SKC,0.00,VWS V14.01,2013-04-09 20:38:00,
2013-04-09 13:39:00,56.0,46.4,30.38,East,101,2.0,3.0,70,0.00,,SKC,0.00,VWS V14.01,2013-04-09 20:39:00,
2013-04-09 13:41:00,55.9,45.9,30.38,ENE,72,0.0,3.0,69,0.00,,SKC,0.00,VWS V14.01,2013-04-09 20:41:00,
2013-04-09 13:42:00,55.9,46.3,30.38,ENE,72,2.0,3.0,70,0.00,,SKC,0.00,VWS V14.01,2013-04-09 20:42:00,
2013-04-09 13:43:00,55.9,45.9,30.38,ENE,72,1.0,3.0,69,0.00,,SKC,0.00,VWS V14.01,2013-04-09 20:43:00,
2013-04-09 13:44:00,55.9,46.3,30.38,NE,46,1.0,3.0,70,0.00,,SKC,0.00,VWS V14.01,2013-04-09 20:44:00,
2013-04-09 13:45:00,56.1,46.8,30.38,East,90,0.0,4.0,71,0.00,,SKC,0.00,VWS V14.01,2013-04-09 20:45:00,
2013-04-09 13:47:00,55.9,46.3,30.38,NE,49,0.0,3.0,70,0.00,,SKC,0.00,VWS V14.01,2013-04-09 20:47:00,
2013-04-09 13:48:00,56.0,46.4,30.38,NNE,33,1.0,4.0,70,0.00,,SKC,0.00,VWS V14.01,2013-04-09 20:48:00,
2013-04-09 13:49:00,56.0,45.6,30.38,East,89,0.0,4.0,68,0.00,,SKC,0.00,VWS V14.01,2013-04-09 20:49:00,
2013-04-09 13:52:00,56.1,46.8,30.38,East,90,0.0,4.0,71,0.00,,SKC,0.00,VWS V14.01,2013-04-09 20:52:00,
2013-04-09 13:53:00,56.2,45.8,30.38,East,90,0.0,1.0,68,0.00,,SKC,0.00,VWS V14.01,2013-04-09 20:53:00,
2013-04-09 13:54:00,56.2,45.8,30.38,SE,132,3.0,3.0,68,0.00,,SKC,0.00,VWS V14.01,2013-04-09 20:54:00,
2013-04-09 13:57:00,56.1,45.3,30.38,East,94,3.0,5.0,67,0.00,,SKC,0.00,VWS V14.01,2013-04-09 20:57:00,
2013-04-09 13:58:00,56.1,45.3,30.38,SSE,150,2.0,5.0,67,0.00,,SKC,0.00,VWS V14.01,2013-04-09 20:58:00,
2013-04-09 13:59:00,56.1,45.3,30.38,SE,146,1.0,5.0,67,0.00,,SKC,0.00,VWS V14.01,2013-04-09 20:59:00,
2013-04-09 14:00:00,56.0,45.2,30.37,ESE,123,0.0,5.0,67,0.00,,SKC,0.00,VWS V14.01,2013-04-09 21:00:00,
2013-04-09 14:02:00,55.9,45.9,30.38,SE,130,0.0,5.0,69,0.00,,SKC,0.00,VWS V14.01,2013-04-09 21:02:00,
2013-04-09 14:04:00,55.9,45.1,30.37,SE,130,0.0,5.0,67,0.00,,SKC,0.00,VWS V14.01,2013-04-09 21:04:00,
2013-04-09 14:05:00,55.9,44.7,30.38,SE,145,0.0,5.0,66,0.00,,SKC,0.00,VWS V14.01,2013-04-09 21:05:00,
2013-04-09 14:08:00,55.9,45.5,30.38,NNE,22,0.0,1.0,68,0.00,,SKC,0.00,VWS V14.01,2013-04-09 21:08:00,
2013-04-09 14:09:00,56.0,45.2,30.38,NNE,22,0.0,1.0,67,0.00,,SKC,0.00,VWS V14.01,2013-04-09 21:09:00,
2013-04-09 14:11:00,56.0,45.2,30.37,NNE,22,0.0,1.0,67,0.00,,SKC,0.00,VWS V14.01,2013-04-09 21:11:00,
2013-04-09 14:14:00,56.2,45.4,30.37,SE,124,2.0,5.0,67,0.00,,SKC,0.00,VWS V14.01,2013-04-09 21:14:00,
2013-04-09 14:15:00,56.2,45.4,30.38,ESE,117,2.0,5.0,67,0.00,,SKC,0.00,VWS V14.01,2013-04-09 21:15:00,
2013-04-09 14:17:00,56.2,45.0,30.38,ESE,117,2.0,5.0,66,0.00,,SKC,0.00,VWS V14.01,2013-04-09 21:17:00,
2013-04-09 14:19:00,56.2,46.2,30.37,ESE,116,1.0,5.0,69,0.00,,SKC,0.00,VWS V14.01,2013-04-09 21:19:00,
2013-04-09 14:20:00,56.2,46.2,30.37,East,92,2.0,5.0,69,0.00,,SKC,0.00,VWS V14.01,2013-04-09 21:20:00,
2013-04-09 14:22:00,56.2,45.0,30.37,SE,141,0.0,5.0,66,0.00,,SKC,0.00,VWS V14.01,2013-04-09 21:22:00,
2013-04-09 14:25:00,56.3,45.9,30.37,SE,141,1.0,1.0,68,0.00,,SKC,0.00,VWS V14.01,2013-04-09 21:25:00,
2013-04-09 14:27:00,56.5,45.3,30.37,SE,141,2.0,3.0,66,0.00,,SKC,0.00,VWS V14.01,2013-04-09 21:27:00,
2013-04-09 14:30:00,56.5,45.3,30.37,SE,141,0.0,3.0,66,0.00,,SKC,0.00,VWS V14.01,2013-04-09 21:30:00,
2013-04-09 14:32:00,56.6,45.4,30.37,SE,141,0.0,3.0,66,0.00,,SKC,0.00,VWS V14.01,2013-04-09 21:32:00,
2013-04-09 14:33:00,56.6,45.4,30.37,SSE,164,0.0,3.0,66,0.00,,SKC,0.00,VWS V14.01,2013-04-09 21:33:00,
2013-04-09 14:35:00,56.5,45.3,30.37,SSE,164,0.0,3.0,66,0.00,,SKC,0.00,VWS V14.01,2013-04-09 21:35:00,
2013-04-09 14:36:00,56.5,45.3,30.37,SSE,164,0.0,3.0,66,0.00,,SKC,0.00,VWS V14.01,2013-04-09 21:36:00,
2013-04-09 14:37:00,56.6,45.8,30.37,SSE,163,0.0,3.0,67,0.00,,SKC,0.00,VWS V14.01,2013-04-09 21:37:00,
2013-04-09 14:38:00,56.6,45.8,30.37,ESE,115,1.0,1.0,67,0.00,,SKC,0.00,VWS V14.01,2013-04-09 21:38:00,
2013-04-09 14:41:00,56.7,45.5,30.37,SSE,148,2.0,3.0,66,0.00,,SKC,0.00,VWS V14.01,2013-04-09 21:41:00,
2013-04-09 14:42:00,56.8,45.6,30.37,SSE,148,0.0,3.0,66,0.00,,SKC,0.00,VWS V14.01,2013-04-09 21:42:00,
2013-04-09 14:44:00,56.8,46.0,30.37,SSE,148,0.0,3.0,67,0.00,,SKC,0.00,VWS V14.01,2013-04-09 21:44:00,
2013-04-09 14:45:00,57.4,46.9,30.37,ENE,63,2.0,5.0,68,0.00,,SKC,0.00,VWS V14.01,2013-04-09 21:45:00,
2013-04-09 14:46:00,57.0,46.2,30.37,ESE,123,3.0,5.0,67,0.00,,SKC,0.00,VWS V14.01,2013-04-09 21:46:00,
2013-04-09 14:47:00,57.0,45.8,30.37,ESE,123,1.0,5.0,66,0.00,,SKC,0.00,VWS V14.01,2013-04-09 21:47:00,
2013-04-09 14:49:00,57.2,46.4,30.37,ESE,122,0.0,5.0,67,0.00,,SKC,0.00,VWS V14.01,2013-04-09 21:49:00,
2013-04-09 14:52:00,57.3,46.5,30.37,ENE,63,2.0,5.0,67,0.00,,SKC,0.00,VWS V14.01,2013-04-09 21:52:00,
2013-04-09 14:53:00,57.4,46.9,30.37,ENE,63,0.0,2.0,68,0.00,,SKC,0.00,VWS V14.01,2013-04-09 21:53:00,
2013-04-09 14:54:00,57.6,46.3,30.37,ENE,63,0.0,2.0,66,0.00,,SKC,0.00,VWS V14.01,2013-04-09 21:54:00,
2013-04-09 14:57:00,57.8,45.3,30.37,ESE,118,4.0,5.0,63,0.00,,SKC,0.00,VWS V14.01,2013-04-09 21:57:00,
2013-04-09 14:58:00,57.8,46.1,30.37,ESE,107,3.0,5.0,65,0.00,,SKC,0.00,VWS V14.01,2013-04-09 21:58:00,
2013-04-09 14:59:00,57.9,46.2,30.37,ESE,109,0.0,5.0,65,0.00,,SKC,0.00,VWS V14.01,2013-04-09 21:59:00,
2013-04-09 15:00:00,57.8,45.7,30.36,ESE,119,0.0,5.0,64,0.00,,SKC,0.00,VWS V14.01,2013-04-09 22:00:00,
2013-04-09 15:02:00,57.9,45.4,30.37,ESE,119,2.0,5.0,63,0.00,,SKC,0.00,VWS V14.01,2013-04-09 22:02:00,
2013-04-09 15:03:00,57.8,45.7,30.36,ESE,119,0.0,5.0,64,0.00,,SKC,0.00,VWS V14.01,2013-04-09 22:03:00,
2013-04-09 15:05:00,57.8,45.7,30.36,ESE,119,0.0,5.0,64,0.00,,SKC,0.00,VWS V14.01,2013-04-09 22:05:00,
2013-04-09 15:07:00,57.8,45.7,30.36,ESE,119,0.0,5.0,64,0.00,,SKC,0.00,VWS V14.01,2013-04-09 22:07:00,
2013-04-09 15:08:00,57.8,46.5,30.36,ESE,119,0.0,1.0,66,0.00,,SKC,0.00,VWS V14.01,2013-04-09 22:08:00,
2013-04-09 15:10:00,57.8,45.3,30.36,SSE,155,2.0,2.0,63,0.00,,SKC,0.00,VWS V14.01,2013-04-09 22:10:00,
2013-04-09 15:12:00,57.9,46.2,30.36,SE,128,0.0,2.0,65,0.00,,SKC,0.00,VWS V14.01,2013-04-09 22:12:00,
2013-04-09 15:13:00,57.9,46.6,30.36,SE,128,0.0,2.0,66,0.00,,SKC,0.00,VWS V14.01,2013-04-09 22:13:00,
2013-04-09 15:14:00,58.0,45.9,30.37,SE,139,1.0,2.0,64,0.00,,SKC,0.00,VWS V14.01,2013-04-09 22:14:00,
2013-04-09 15:15:00,58.0,45.5,30.37,South,171,0.0,2.0,63,0.00,,SKC,0.00,VWS V14.01,2013-04-09 22:15:00,
2013-04-09 15:18:00,58.1,45.6,30.37,NNW,345,0.0,2.0,63,0.00,,SKC,0.00,VWS V14.01,2013-04-09 22:18:00,
2013-04-09 15:20:00,58.2,46.1,30.37,NW,321,1.0,3.0,64,0.00,,SKC,0.00,VWS V14.01,2013-04-09 22:20:00,
2013-04-09 15:21:00,58.2,45.7,30.37,NNW,333,2.0,3.0,63,0.00,,SKC,0.00,VWS V14.01,2013-04-09 22:21:00,
2013-04-09 15:23:00,58.2,45.7,30.37,NW,304,3.0,3.0,63,0.00,,SKC,0.00,VWS V14.01,2013-04-09 22:23:00,
2013-04-09 15:26:00,58.2,45.3,30.37,NW,306,0.0,4.0,62,0.00,,SKC,0.00,VWS V14.01,2013-04-09 22:26:00,
2013-04-09 15:27:00,58.2,45.7,30.37,NW,306,0.0,4.0,63,0.00,,SKC,0.00,VWS V14.01,2013-04-09 22:27:00,
2013-04-09 15:28:00,58.2,45.3,30.37,NW,312,2.0,4.0,62,0.00,,SKC,0.00,VWS V14.01,2013-04-09 22:28:00,
2013-04-09 15:29:00,58.2,45.3,30.37,NW,312,0.0,4.0,62,0.00,,SKC,0.00,VWS V14.01,2013-04-09 22:29:00,
2013-04-09 15:30:00,58.3,46.2,30.36,North,11,0.0,4.0,64,0.00,,SKC,0.00,VWS V14.01,2013-04-09 22:30:00,
2013-04-09 15:31:00,58.2,44.8,30.37,NW,312,0.0,4.0,61,0.00,,SKC,0.00,VWS V14.01,2013-04-09 22:31:00,
2013-04-09 15:33:00,58.1,45.2,30.36,NW,312,0.0,4.0,62,0.00,,SKC,0.00,VWS V14.01,2013-04-09 22:33:00,
2013-04-09 15:34:00,58.2,45.3,30.36,NNE,17,1.0,4.0,62,0.00,,SKC,0.00,VWS V14.01,2013-04-09 22:34:00,
2013-04-09 15:37:00,58.3,46.2,30.36,ENE,71,0.0,4.0,64,0.00,,SKC,0.00,VWS V14.01,2013-04-09 22:37:00,
2013-04-09 15:38:00,58.4,45.5,30.36,West,263,0.0,1.0,62,0.00,,SKC,0.00,VWS V14.01,2013-04-09 22:38:00,
2013-04-09 15:39:00,58.4,45.5,30.36,West,263,0.0,1.0,62,0.00,,SKC,0.00,VWS V14.01,2013-04-09 22:39:00,
2013-04-09 15:42:00,58.5,45.1,30.36,SW,221,2.0,4.0,61,0.00,,SKC,0.00,VWS V14.01,2013-04-09 22:42:00,
2013-04-09 15:44:00,58.4,45.5,30.36,South,188,2.0,4.0,62,0.00,,SKC,0.00,VWS V14.01,2013-04-09 22:44:00,
2013-04-09 15:45:00,58.4,45.0,30.36,SW,233,1.0,4.0,61,0.00,,SKC,0.00,VWS V14.01,2013-04-09 22:45:00,
2013-04-09 15:48:00,58.3,44.5,30.36,WNW,302,1.0,4.0,60,0.00,,SKC,0.00,VWS V14.01,2013-04-09 22:48:00,
2013-04-09 15:49:00,58.2,44.0,30.36,WNW,297,1.0,4.0,59,0.00,,SKC,0.00,VWS V14.01,2013-04-09 22:49:00,
2013-04-09 15:50:00,58.2,44.8,30.36,WNW,297,1.0,4.0,61,0.00,,SKC,0.00,VWS V14.01,2013-04-09 22:50:00,
2013-04-09 15:53:00,58.1,45.2,30.36,WNW,296,2.0,2.0,62,0.00,,SKC,0.00,VWS V14.01,2013-04-09 22:53:00,
2013-04-09 15:54:00,58.1,44.7,30.36,WNW,296,0.0,2.0,61,0.00,,SKC,0.00,VWS V14.01,2013-04-09 22:54:00,
2013-04-09 15:55:00,58.1,44.7,30.36,NW,321,1.0,2.0,61,0.00,,SKC,0.00,VWS V14.01,2013-04-09 22:55:00,
2013-04-09 15:58:00,58.1,44.7,30.36,NW,307,1.0,2.0,61,0.00,,SKC,0.00,VWS V14.01,2013-04-09 22:58:00,
2013-04-09 16:00:00,58.1,45.2,30.36,SW,232,0.0,2.0,62,0.00,,SKC,0.00,VWS V14.01,2013-04-09 23:00:00,
2013-04-09 16:01:00,58.1,45.2,30.36,SW,232,0.0,2.0,62,0.00,,SKC,0.00,VWS V14.01,2013-04-09 23:01:00,
2013-04-09 16:03:00,58.3,45.3,30.36,WNW,295,0.0,2.0,62,0.00,,SKC,0.00,VWS V14.01,2013-04-09 23:03:00,
2013-04-09 16:05:00,58.4,45.9,30.36,WNW,295,1.0,2.0,63,0.00,,SKC,0.00,VWS V14.01,2013-04-09 23:05:00,
2013-04-09 16:06:00,58.4,45.9,30.36,WNW,295,1.0,3.0,63,0.00,,SKC,0.00,VWS V14.01,2013-04-09 23:06:00,
2013-04-09 16:08:00,58.5,45.1,30.36,NW,315,4.0,4.0,61,0.00,,SKC,0.00,VWS V14.01,2013-04-09 23:08:00,
2013-04-09 16:10:00,58.6,45.2,30.36,NW,316,1.0,4.0,61,0.00,,SKC,0.00,VWS V14.01,2013-04-09 23:10:00,
2013-04-09 16:11:00,58.6,45.2,30.36,NW,316,0.0,4.0,61,0.00,,SKC,0.00,VWS V14.01,2013-04-09 23:11:00,
2013-04-09 16:12:00,58.6,44.8,30.36,NW,316,0.0,4.0,60,0.00,,SKC,0.00,VWS V14.01,2013-04-09 23:12:00,
2013-04-09 16:13:00,58.6,44.3,30.36,NW,316,0.0,4.0,59,0.00,,SKC,0.00,VWS V14.01,2013-04-09 23:13:00,
2013-04-09 16:15:00,58.5,46.0,30.35,SSW,194,2.0,4.0,63,0.00,,SKC,0.00,VWS V14.01,2013-04-09 23:15:00,
2013-04-09 16:16:00,58.6,44.8,30.36,NW,308,0.0,4.0,60,0.00,,SKC,0.00,VWS V14.01,2013-04-09 23:16:00,
2013-04-09 16:17:00,58.6,44.3,30.36,NW,308,0.0,4.0,59,0.00,,SKC,0.00,VWS V14.01,2013-04-09 23:17:00,
2013-04-09 16:18:00,58.5,45.5,30.35,NW,308,0.0,4.0,62,0.00,,SKC,0.00,VWS V14.01,2013-04-09 23:18:00,
2013-04-09 16:22:00,58.5,46.0,30.35,NW,308,0.0,4.0,63,0.00,,SKC,0.00,VWS V14.01,2013-04-09 23:22:00,
2013-04-09 16:24:00,58.5,44.7,30.36,South,189,1.0,2.0,60,0.00,,SKC,0.00,VWS V14.01,2013-04-09 23:24:00,
2013-04-09 16:27:00,58.4,45.0,30.36,South,182,0.0,3.0,61,0.00,,SKC,0.00,VWS V14.01,2013-04-09 23:27:00,
2013-04-09 16:28:00,58.4,45.0,30.35,SSW,209,2.0,3.0,61,0.00,,SKC,0.00,VWS V14.01,2013-04-09 23:28:00,
2013-04-09 16:29:00,58.4,45.0,30.35,SSW,200,0.0,3.0,61,0.00,,SKC,0.00,VWS V14.01,2013-04-09 23:29:00,
2013-04-09 16:30:00,58.4,45.5,30.35,East,101,2.0,3.0,62,0.00,,SKC,0.00,VWS V14.01,2013-04-09 23:30:00,
2013-04-09 16:32:00,58.4,45.5,30.35,SW,227,0.0,3.0,62,0.00,,SKC,0.00,VWS V14.01,2013-04-09 23:32:00,
2013-04-09 16:33:00,58.4,45.5,30.35,SW,228,2.0,3.0,62,0.00,,SKC,0.00,VWS V14.01,2013-04-09 23:33:00,
2013-04-09 16:34:00,58.4,44.1,30.35,SW,228,0.0,3.0,59,0.00,,SKC,0.00,VWS V14.01,2013-04-09 23:34:00,
2013-04-09 16:37:00,58.4,45.5,30.35,East,101,2.0,2.0,62,0.00,,SKC,0.00,VWS V14.01,2013-04-09 23:37:00,
2013-04-09 16:38:00,58.4,45.5,30.35,East,101,2.0,2.0,62,0.00,,SKC,0.00,VWS V14.01,2013-04-09 23:38:00,
2013-04-09 16:39:00,58.4,45.5,30.35,East,101,0.0,2.0,62,0.00,,SKC,0.00,VWS V14.01,2013-04-09 23:39:00,
2013-04-09 16:43:00,58.4,45.0,30.35,East,101,0.0,4.0,61,0.00,,SKC,0.00,VWS V14.01,2013-04-09 23:43:00,
2013-04-09 16:44:00,58.4,45.5,30.35,East,101,0.0,4.0,62,0.00,,SKC,0.00,VWS V14.01,2013-04-09 23:44:00,
2013-04-09 16:45:00,58.6,45.2,30.35,SSW,203,1.0,4.0,61,0.00,,SKC,0.00,VWS V14.01,2013-04-09 23:45:00,
2013-04-09 16:48:00,58.5,45.5,30.35,NW,323,0.0,4.0,62,0.00,,SKC,0.00,VWS V14.01,2013-04-09 23:48:00,
2013-04-09 16:49:00,58.5,46.0,30.35,NW,323,0.0,4.0,63,0.00,,SKC,0.00,VWS V14.01,2013-04-09 23:49:00,
2013-04-09 16:50:00,58.5,45.5,30.35,NW,323,0.0,4.0,62,0.00,,SKC,0.00,VWS V14.01,2013-04-09 23:50:00,
2013-04-09 16:53:00,58.6,45.2,30.35,SW,219,0.0,1.0,61,0.00,,SKC,0.00,VWS V14.01,2013-04-09 23:53:00,
2013-04-09 16:54:00,58.6,45.2,30.35,SW,219,0.0,1.0,61,0.00,,SKC,0.00,VWS V14.01,2013-04-09 23:54:00,
2013-04-09 16:55:00,58.6,45.6,30.34,SW,219,0.0,1.0,62,0.00,,SKC,0.00,VWS V14.01,2013-04-09 23:55:00,
2013-04-09 16:59:00,58.7,46.2,30.34,SW,219,2.0,3.0,63,0.00,,SKC,0.00,VWS V14.01,2013-04-09 23:59:00,
2013-04-09 17:00:00,58.6,45.2,30.34,SW,220,1.0,3.0,61,0.00,,SKC,0.00,VWS V14.01,2013-04-10 00:00:00,
2013-04-09 17:04:00,58.6,45.2,30.34,SSE,150,1.0,3.0,61,0.00,,SKC,0.00,VWS V14.01,2013-04-10 00:04:00,
2013-04-09 17:05:00,58.6,46.1,30.34,SSE,150,0.0,3.0,63,0.00,,SKC,0.00,VWS V14.01,2013-04-10 00:05:00,
2013-04-09 17:09:00,58.7,45.7,30.34,SSE,150,0.0,1.0,62,0.00,,SKC,0.00,VWS V14.01,2013-04-10 00:09:00,
2013-04-09 17:10:00,58.7,45.7,30.34,SSE,150,0.0,1.0,62,0.00,,SKC,0.00,VWS V14.01,2013-04-10 00:10:00,
2013-04-09 17:11:00,58.7,45.3,30.34,SSE,150,0.0,1.0,61,0.00,,SKC,0.00,VWS V14.01,2013-04-10 00:11:00,
2013-04-09 17:12:00,58.7,45.3,30.34,SSE,150,0.0,1.0,61,0.00,,SKC,0.00,VWS V14.01,2013-04-10 00:12:00,
2013-04-09 17:14:00,58.8,45.0,30.34,SSW,199,0.0,2.0,60,0.00,,SKC,0.00,VWS V14.01,2013-04-10 00:14:00,
2013-04-09 17:15:00,58.8,44.5,30.34,SSW,200,0.0,2.0,59,0.00,,SKC,0.00,VWS V14.01,2013-04-10 00:15:00,
2013-04-09 17:16:00,58.8,45.0,30.34,SSW,199,0.0,2.0,60,0.00,,SKC,0.00,VWS V14.01,2013-04-10 00:16:00,
2013-04-09 17:17:00,58.7,44.4,30.34,SSW,199,0.0,2.0,59,0.00,,SKC,0.00,VWS V14.01,2013-04-10 00:17:00,
2013-04-09 17:20:00,58.7,45.3,30.34,South,173,0.0,2.0,61,0.00,,SKC,0.00,VWS V14.01,2013-04-10 00:20:00,
2013-04-09 17:21:00,58.6,44.8,30.34,SE,128,2.0,3.0,60,0.00,,SKC,0.00,VWS V14.01,2013-04-10 00:21:00,
2013-04-09 17:22:00,58.6,45.2,30.34,SE,128,2.0,3.0,61,0.00,,SKC,0.00,VWS V14.01,2013-04-10 00:22:00,
2013-04-09 17:25:00,58.6,44.8,30.34,SE,128,0.0,3.0,60,0.00,,SKC,0.00,VWS V14.01,2013-04-10 00:25:00,
2013-04-09 17:27:00,58.6,45.2,30.33,SE,128,0.0,3.0,61,0.00,,SKC,0.00,VWS V14.01,2013-04-10 00:27:00,
2013-04-09 17:30:00,58.6,45.2,30.33,SE,134,0.0,3.0,61,0.00,,SKC,0.00,VWS V14.01,2013-04-10 00:30:00,
2013-04-09 17:32:00,58.6,44.8,30.33,SE,134,0.0,3.0,60,0.00,,SKC,0.00,VWS V14.01,2013-04-10 00:32:00,
2013-04-09 17:33:00,58.6,44.8,30.33,SE,134,0.0,3.0,60,0.00,,SKC,0.00,VWS V14.01,2013-04-10 00:33:00,
2013-04-09 17:35:00,58.7,45.3,30.33,SE,134,0.0,3.0,61,0.00,,SKC,0.00,VWS V14.01,2013-04-10 00:35:00,
2013-04-09 17:36:00,58.7,46.2,30.34,SE,134,0.0,3.0,63,0.00,,SKC,0.00,VWS V14.01,2013-04-10 00:36:00,
2013-04-09 17:37:00,58.7,45.3,30.34,SE,134,0.0,3.0,61,0.00,,SKC,0.00,VWS V14.01,2013-04-10 00:37:00,
2013-04-09 17:38:00,58.7,44.9,30.34,SE,134,0.0,1.0,60,0.00,,SKC,0.00,VWS V14.01,2013-04-10 00:38:00,
2013-04-09 17:41:00,58.7,45.7,30.34,WSW,240,0.0,1.0,62,0.00,,SKC,0.00,VWS V14.01,2013-04-10 00:41:00,
2013-04-09 17:42:00,58.7,45.7,30.34,WSW,240,0.0,1.0,62,0.00,,SKC,0.00,VWS V14.01,2013-04-10 00:42:00,
2013-04-09 17:43:00,58.6,45.6,30.34,WSW,240,0.0,1.0,62,0.00,,SKC,0.00,VWS V14.01,2013-04-10 00:43:00,
2013-04-09 17:45:00,58.4,45.0,30.34,WSW,240,0.0,1.0,61,0.00,,SKC,0.00,VWS V14.01,2013-04-10 00:45:00,
2013-04-09 17:46:00,58.6,45.2,30.34,WSW,240,0.0,1.0,61,0.00,,SKC,0.00,VWS V14.01,2013-04-10 00:46:00,
2013-04-09 17:47:00,58.6,45.2,30.34,WSW,240,0.0,1.0,61,0.00,,SKC,0.00,VWS V14.01,2013-04-10 00:47:00,
2013-04-09 17:48:00,58.5,45.1,30.34,WSW,240,0.0,1.0,61,0.00,,SKC,0.00,VWS V14.01,2013-04-10 00:48:00,
2013-04-09 17:49:00,58.5,44.7,30.34,WSW,240,0.0,1.0,60,0.00,,SKC,0.00,VWS V14.01,2013-04-10 00:49:00,
2013-04-09 17:51:00,58.5,45.1,30.34,WSW,240,0.0,1.0,61,0.00,,SKC,0.00,VWS V14.01,2013-04-10 00:51:00,
2013-04-09 17:52:00,58.5,45.1,30.34,WSW,240,0.0,1.0,61,0.00,,SKC,0.00,VWS V14.01,2013-04-10 00:52:00,
2013-04-09 17:53:00,58.4,45.9,30.34,WSW,240,0.0,0.0,63,0.00,,SKC,0.00,VWS V14.01,2013-04-10 00:53:00,
2013-04-09 17:54:00,58.4,47.1,30.34,WSW,240,0.0,0.0,66,0.00,,SKC,0.00,VWS V14.01,2013-04-10 00:54:00,
2013-04-09 17:57:00,58.4,45.5,30.34,WSW,240,0.0,1.0,62,0.00,,SKC,0.00,VWS V14.01,2013-04-10 00:57:00,
2013-04-09 17:58:00,58.3,45.8,30.34,NW,324,1.0,3.0,63,0.00,,SKC,0.00,VWS V14.01,2013-04-10 00:58:00,
2013-04-09 17:59:00,58.3,45.8,30.34,NW,324,0.0,3.0,63,0.00,,SKC,0.00,VWS V14.01,2013-04-10 00:59:00,
2013-04-09 18:00:00,58.2,45.3,30.34,NW,311,0.0,3.0,62,0.00,,SKC,0.00,VWS V14.01,2013-04-10 01:00:00,
2013-04-09 18:02:00,58.2,45.7,30.34,NW,324,0.0,3.0,63,0.00,,SKC,0.00,VWS V14.01,2013-04-10 01:02:00,
2013-04-09 18:03:00,58.2,45.7,30.34,NW,324,0.0,3.0,63,0.00,,SKC,0.00,VWS V14.01,2013-04-10 01:03:00,
2013-04-09 18:05:00,58.2,46.1,30.34,NW,324,0.0,3.0,64,0.00,,SKC,0.00,VWS V14.01,2013-04-10 01:05:00,
2013-04-09 18:07:00,58.2,45.3,30.34,NW,311,0.0,3.0,62,0.00,,SKC,0.00,VWS V14.01,2013-04-10 01:07:00,
2013-04-09 18:09:00,58.1,45.6,30.34,NW,311,0.0,0.0,63,0.00,,SKC,0.00,VWS V14.01,2013-04-10 01:09:00,
2013-04-09 18:10:00,58.1,46.4,30.34,NW,311,0.0,0.0,65,0.00,,SKC,0.00,VWS V14.01,2013-04-10 01:10:00,
2013-04-09 18:12:00,58.1,45.2,30.34,NW,311,0.0,1.0,62,0.00,,SKC,0.00,VWS V14.01,2013-04-10 01:12:00,
2013-04-09 18:13:00,58.1,45.2,30.34,NW,311,0.0,1.0,62,0.00,,SKC,0.00,VWS V14.01,2013-04-10 01:13:00,
2013-04-09 18:14:00,58.1,46.0,30.34,NW,311,0.0,1.0,64,0.00,,SKC,0.00,VWS V14.01,2013-04-10 01:14:00,
2013-04-09 18:15:00,58.1,45.6,30.34,NW,311,0.0,1.0,63,0.00,,SKC,0.00,VWS V14.01,2013-04-10 01:15:00,
2013-04-09 18:18:00,58.1,46.4,30.34,NW,311,0.0,1.0,65,0.00,,SKC,0.00,VWS V14.01,2013-04-10 01:18:00,
2013-04-09 18:19:00,58.1,46.4,30.33,NW,311,0.0,2.0,65,0.00,,SKC,0.00,VWS V14.01,2013-04-10 01:19:00,
2013-04-09 18:20:00,58.2,45.7,30.33,NW,311,0.0,2.0,63,0.00,,SKC,0.00,VWS V14.01,2013-04-10 01:20:00,
2013-04-09 18:23:00,58.2,46.1,30.33,NW,311,0.0,0.0,64,0.00,,SKC,0.00,VWS V14.01,2013-04-10 01:23:00,
2013-04-09 18:24:00,58.2,45.7,30.33,NW,311,0.0,0.0,63,0.00,,SKC,0.00,VWS V14.01,2013-04-10 01:24:00,
2013-04-09 18:25:00,58.2,45.3,30.33,NW,311,0.0,0.0,62,0.00,,SKC,0.00,VWS V14.01,2013-04-10 01:25:00,
2013-04-09 18:28:00,58.1,45.2,30.33,NW,311,0.0,2.0,62,0.00,,SKC,0.00,VWS V14.01,2013-04-10 01:28:00,
2013-04-09 18:29:00,58.1,45.2,30.33,NW,311,1.0,2.0,62,0.00,,SKC,0.00,VWS V14.01,2013-04-10 01:29:00,
2013-04-09 18:30:00,58.1,46.4,30.33,NW,311,0.0,2.0,65,0.00,,SKC,0.00,VWS V14.01,2013-04-10 01:30:00,
2013-04-09 18:33:00,58.0,45.9,30.34,NW,311,0.0,2.0,64,0.00,,SKC,0.00,VWS V14.01,2013-04-10 01:33:00,
2013-04-09 18:34:00,58.0,45.5,30.34,NW,311,0.0,2.0,63,0.00,,SKC,0.00,VWS V14.01,2013-04-10 01:34:00,
2013-04-09 18:35:00,58.0,46.7,30.34,NW,311,0.0,2.0,66,0.00,,SKC,0.00,VWS V14.01,2013-04-10 01:35:00,
2013-04-09 18:37:00,57.9,45.4,30.34,NW,311,0.0,2.0,63,0.00,,SKC,0.00,VWS V14.01,2013-04-10 01:37:00,
2013-04-09 18:38:00,57.9,46.2,30.33,NW,311,0.0,0.0,65,0.00,,SKC,0.00,VWS V14.01,2013-04-10 01:38:00,
2013-04-09 18:39:00,57.8,46.1,30.33,NW,311,0.0,0.0,65,0.00,,SKC,0.00,VWS V14.01,2013-04-10 01:39:00,
2013-04-09 18:40:00,57.8,46.5,30.33,NW,311,0.0,0.0,66,0.00,,SKC,0.00,VWS V14.01,2013-04-10 01:40:00,
2013-04-09 18:42:00,57.8,46.1,30.33,NW,311,0.0,0.0,65,0.00,,SKC,0.00,VWS V14.01,2013-04-10 01:42:00,
2013-04-09 18:43:00,57.7,47.2,30.33,NW,311,0.0,0.0,68,0.00,,SKC,0.00,VWS V14.01,2013-04-10 01:43:00,
2013-04-09 18:44:00,57.7,46.4,30.33,NW,311,0.0,0.0,66,0.00,,SKC,0.00,VWS V14.01,2013-04-10 01:44:00,
2013-04-09 18:45:00,57.6,46.7,30.33,NW,311,0.0,0.0,67,0.00,,SKC,0.00,VWS V14.01,2013-04-10 01:45:00,
2013-04-09 18:47:00,57.6,46.7,30.33,NW,311,0.0,0.0,67,0.00,,SKC,0.00,VWS V14.01,2013-04-10 01:47:00,
2013-04-09 18:48:00,57.5,46.2,30.33,NW,311,0.0,0.0,66,0.00,,SKC,0.00,VWS V14.01,2013-04-10 01:48:00,
2013-04-09 18:49:00,57.5,45.8,30.33,NW,311,0.0,0.0,65,0.00,,SKC,0.00,VWS V14.01,2013-04-10 01:49:00,
2013-04-09 18:51:00,57.4,48.1,30.33,NW,311,0.0,0.0,71,0.00,,SKC,0.00,VWS V14.01,2013-04-10 01:51:00,
2013-04-09 18:52:00,57.3,46.0,30.33,NW,311,0.0,0.0,66,0.00,,SKC,0.00,VWS V14.01,2013-04-10 01:52:00,
2013-04-09 18:54:00,57.2,46.0,30.33,NW,311,0.0,0.0,66,0.00,,SKC,0.00,VWS V14.01,2013-04-10 01:54:00,
2013-04-09 18:57:00,57.1,45.9,30.32,NW,311,0.0,0.0,66,0.00,,SKC,0.00,VWS V14.01,2013-04-10 01:57:00,
2013-04-09 18:58:00,57.1,46.7,30.32,NW,311,0.0,0.0,68,0.00,,SKC,0.00,VWS V14.01,2013-04-10 01:58:00,
2013-04-09 18:59:00,57.0,46.9,30.32,NW,311,0.0,0.0,69,0.00,,SKC,0.00,VWS V14.01,2013-04-10 01:59:00,
2013-04-09 19:00:00,56.6,45.8,30.32,NW,311,0.0,0.0,67,0.00,,SKC,0.00,VWS V14.01,2013-04-10 02:00:00,
2013-04-09 19:02:00,56.8,46.8,30.32,NW,311,0.0,0.0,69,0.00,,SKC,0.00,VWS V14.01,2013-04-10 02:02:00,
2013-04-09 19:03:00,56.8,46.0,30.32,NW,311,0.0,0.0,67,0.00,,SKC,0.00,VWS V14.01,2013-04-10 02:03:00,
2013-04-09 19:04:00,56.7,45.9,30.32,NW,311,0.0,0.0,67,0.00,,SKC,0.00,VWS V14.01,2013-04-10 02:04:00,
2013-04-09 19:07:00,56.6,45.8,30.32,NW,311,0.0,0.0,67,0.00,,SKC,0.00,VWS V14.01,2013-04-10 02:07:00,
2013-04-09 19:09:00,56.6,46.6,30.32,NW,311,0.0,0.0,69,0.00,,SKC,0.00,VWS V14.01,2013-04-10 02:09:00,
2013-04-09 19:10:00,56.5,47.2,30.32,NW,311,0.0,0.0,71,0.00,,SKC,0.00,VWS V14.01,2013-04-10 02:10:00,
2013-04-09 19:12:00,56.4,46.4,30.31,NW,311,0.0,0.0,69,0.00,,SKC,0.00,VWS V14.01,2013-04-10 02:12:00,
2013-04-09 19:15:00,56.3,46.3,30.31,NW,311,0.0,0.0,69,0.00,,SKC,0.00,VWS V14.01,2013-04-10 02:15:00,
2013-04-09 19:16:00,56.2,46.2,30.31,NW,311,0.0,0.0,69,0.00,,SKC,0.00,VWS V14.01,2013-04-10 02:16:00,
2013-04-09 19:18:00,56.2,46.2,30.31,NW,311,0.0,0.0,69,0.00,,SKC,0.00,VWS V14.01,2013-04-10 02:18:00,
2013-04-09 19:20:00,56.1,47.2,30.31,NW,311,0.0,0.0,72,0.00,,SKC,0.00,VWS V14.01,2013-04-10 02:20:00,
2013-04-09 19:21:00,56.1,46.8,30.31,NW,311,0.0,0.0,71,0.00,,SKC,0.00,VWS V14.01,2013-04-10 02:21:00,
2013-04-09 19:23:00,56.0,46.7,30.31,NW,311,0.0,0.0,71,0.00,,SKC,0.00,VWS V14.01,2013-04-10 02:23:00,
2013-04-09 19:25:00,55.9,47.4,30.31,NW,311,0.0,0.0,73,0.00,,SKC,0.00,VWS V14.01,2013-04-10 02:25:00,
2013-04-09 19:28:00,55.8,46.5,30.31,NW,311,0.0,0.0,71,0.00,,SKC,0.00,VWS V14.01,2013-04-10 02:28:00,
2013-04-09 19:30:00,55.7,46.1,30.31,NW,311,0.0,0.0,70,0.00,,SKC,0.00,VWS V14.01,2013-04-10 02:30:00,
2013-04-09 19:32:00,55.6,46.4,30.31,NW,311,0.0,0.0,71,0.00,,SKC,0.00,VWS V14.01,2013-04-10 02:32:00,
2013-04-09 19:33:00,55.6,46.7,30.31,NW,311,0.0,0.0,72,0.00,,SKC,0.00,VWS V14.01,2013-04-10 02:33:00,
2013-04-09 19:34:00,55.6,46.0,30.31,NW,311,0.0,1.0,70,0.00,,SKC,0.00,VWS V14.01,2013-04-10 02:34:00,
2013-04-09 19:35:00,55.5,46.3,30.31,NW,311,0.0,1.0,71,0.00,,SKC,0.00,VWS V14.01,2013-04-10 02:35:00,
2013-04-09 19:37:00,55.5,46.6,30.31,NW,311,0.0,1.0,72,0.00,,SKC,0.00,VWS V14.01,2013-04-10 02:37:00,
2013-04-09 19:38:00,55.5,46.6,30.31,NW,311,0.0,0.0,72,0.00,,SKC,0.00,VWS V14.01,2013-04-10 02:38:00,
2013-04-09 19:39:00,55.5,46.6,30.31,NW,311,0.0,0.0,72,0.00,,SKC,0.00,VWS V14.01,2013-04-10 02:39:00,
2013-04-09 19:41:00,55.4,46.5,30.31,NW,311,0.0,0.0,72,0.00,,SKC,0.00,VWS V14.01,2013-04-10 02:41:00,
2013-04-09 19:42:00,55.4,47.6,30.31,NW,311,0.0,0.0,75,0.00,,SKC,0.00,VWS V14.01,2013-04-10 02:42:00,
2013-04-09 19:43:00,55.3,47.2,30.31,NW,311,0.0,0.0,74,0.00,,SKC,0.00,VWS V14.01,2013-04-10 02:43:00,
2013-04-09 19:45:00,55.3,47.2,30.31,NW,311,0.0,0.0,74,0.00,,SKC,0.00,VWS V14.01,2013-04-10 02:45:00,
2013-04-09 19:46:00,55.2,47.1,30.31,NW,311,0.0,0.0,74,0.00,,SKC,0.00,VWS V14.01,2013-04-10 02:46:00,
2013-04-09 19:47:00,55.2,47.1,30.31,NW,311,0.0,0.0,74,0.00,,SKC,0.00,VWS V14.01,2013-04-10 02:47:00,
2013-04-09 19:49:00,55.1,47.0,30.31,NW,311,0.0,0.0,74,0.00,,SKC,0.00,VWS V14.01,2013-04-10 02:49:00,
2013-04-09 19:50:00,55.1,46.6,30.32,NW,311,0.0,0.0,73,0.00,,SKC,0.00,VWS V14.01,2013-04-10 02:50:00,
2013-04-09 19:52:00,55.1,47.7,30.31,NW,311,0.0,0.0,76,0.00,,SKC,0.00,VWS V14.01,2013-04-10 02:52:00,
2013-04-09 19:54:00,55.0,46.9,30.31,NW,311,0.0,0.0,74,0.00,,SKC,0.00,VWS V14.01,2013-04-10 02:54:00,
2013-04-09 19:56:00,54.9,46.8,30.31,NW,311,0.0,0.0,74,0.00,,SKC,0.00,VWS V14.01,2013-04-10 02:56:00,
2013-04-09 19:57:00,54.9,47.1,30.31,NW,311,0.0,0.0,75,0.00,,SKC,0.00,VWS V14.01,2013-04-10 02:57:00,
2013-04-09 19:58:00,54.9,46.8,30.31,NW,311,0.0,0.0,74,0.00,,SKC,0.00,VWS V14.01,2013-04-10 02:58:00,
2013-04-09 19:59:00,54.8,46.7,30.31,NW,311,0.0,0.0,74,0.00,,SKC,0.00,VWS V14.01,2013-04-10 02:59:00,
2013-04-09 20:00:00,54.6,46.8,30.31,NW,311,0.0,0.0,75,0.00,,SKC,0.00,VWS V14.01,2013-04-10 03:00:00,
2013-04-09 20:02:00,54.8,46.7,30.31,NW,311,0.0,0.0,74,0.00,,SKC,0.00,VWS V14.01,2013-04-10 03:02:00,
2013-04-09 20:03:00,54.7,46.2,30.31,NW,311,0.0,0.0,73,0.00,,SKC,0.00,VWS V14.01,2013-04-10 03:03:00,
2013-04-09 20:04:00,54.7,46.6,30.31,NW,311,0.0,0.0,74,0.00,,SKC,0.00,VWS V14.01,2013-04-10 03:04:00,
2013-04-09 20:07:00,54.6,46.8,30.31,NW,311,0.0,0.0,75,0.00,,SKC,0.00,VWS V14.01,2013-04-10 03:07:00,
2013-04-09 20:08:00,54.6,46.8,30.31,NW,311,0.0,0.0,75,0.00,,SKC,0.00,VWS V14.01,2013-04-10 03:08:00,
2013-04-09 20:09:00,54.6,46.8,30.31,NW,311,0.0,0.0,75,0.00,,SKC,0.00,VWS V14.01,2013-04-10 03:09:00,
2013-04-09 20:12:00,54.5,47.5,30.31,NW,311,0.0,0.0,77,0.00,,SKC,0.00,VWS V14.01,2013-04-10 03:12:00,
2013-04-09 20:13:00,54.5,47.5,30.31,NW,311,0.0,0.0,77,0.00,,SKC,0.00,VWS V14.01,2013-04-10 03:13:00,
2013-04-09 20:15:00,54.4,47.0,30.31,NW,311,0.0,0.0,76,0.00,,SKC,0.00,VWS V14.01,2013-04-10 03:15:00,
2013-04-09 20:17:00,54.4,47.0,30.31,NW,311,0.0,0.0,76,0.00,,SKC,0.00,VWS V14.01,2013-04-10 03:17:00,
2013-04-09 20:18:00,54.4,47.0,30.31,NW,311,0.0,0.0,76,0.00,,SKC,0.00,VWS V14.01,2013-04-10 03:18:00,
2013-04-09 20:19:00,54.3,46.9,30.31,NW,311,0.0,0.0,76,0.00,,SKC,0.00,VWS V14.01,2013-04-10 03:19:00,
2013-04-09 20:20:00,54.3,46.9,30.31,NW,311,0.0,0.0,76,0.00,,SKC,0.00,VWS V14.01,2013-04-10 03:20:00,
2013-04-09 20:22:00,54.2,46.8,30.31,NW,311,0.0,0.0,76,0.00,,SKC,0.00,VWS V14.01,2013-04-10 03:22:00,
2013-04-09 20:23:00,54.2,46.8,30.31,NW,311,0.0,0.0,76,0.00,,SKC,0.00,VWS V14.01,2013-04-10 03:23:00,
2013-04-09 20:24:00,54.2,47.2,30.31,NW,311,0.0,0.0,77,0.00,,SKC,0.00,VWS V14.01,2013-04-10 03:24:00,
2013-04-09 20:26:00,54.2,47.2,30.31,NW,311,0.0,0.0,77,0.00,,SKC,0.00,VWS V14.01,2013-04-10 03:26:00,
2013-04-09 20:27:00,54.2,47.8,30.31,NW,311,0.0,0.0,79,0.00,,SKC,0.00,VWS V14.01,2013-04-10 03:27:00,
2013-04-09 20:28:00,54.2,47.8,30.31,NW,311,0.0,0.0,79,0.00,,SKC,0.00,VWS V14.01,2013-04-10 03:28:00,
2013-04-09 20:29:00,54.1,47.4,30.31,NW,311,0.0,0.0,78,0.00,,SKC,0.00,VWS V14.01,2013-04-10 03:29:00,
2013-04-09 20:30:00,54.0,47.3,30.31,NW,311,0.0,0.0,78,0.00,,SKC,0.00,VWS V14.01,2013-04-10 03:30:00,
2013-04-09 20:31:00,54.1,47.4,30.31,NW,311,0.0,0.0,78,0.00,,SKC,0.00,VWS V14.01,2013-04-10 03:31:00,
2013-04-09 20:32:00,54.1,47.4,30.31,NW,311,0.0,0.0,78,0.00,,SKC,0.00,VWS V14.01,2013-04-10 03:32:00,
2013-04-09 20:34:00,54.0,47.3,30.31,NW,311,0.0,0.0,78,0.00,,SKC,0.00,VWS V14.01,2013-04-10 03:34:00,
2013-04-09 20:36:00,54.0,47.3,30.31,NW,311,0.0,0.0,78,0.00,,SKC,0.00,VWS V14.01,2013-04-10 03:36:00,
2013-04-09 20:37:00,54.0,47.3,30.31,NW,311,0.0,0.0,78,0.00,,SKC,0.00,VWS V14.01,2013-04-10 03:37:00,
2013-04-09 20:39:00,54.0,47.6,30.31,NW,311,0.0,0.0,79,0.00,,SKC,0.00,VWS V14.01,2013-04-10 03:39:00,
2013-04-09 20:40:00,53.9,47.5,30.31,NW,311,0.0,0.0,79,0.00,,SKC,0.00,VWS V14.01,2013-04-10 03:40:00,
2013-04-09 20:41:00,53.9,47.5,30.31,NW,311,0.0,0.0,79,0.00,,SKC,0.00,VWS V14.01,2013-04-10 03:41:00,
2013-04-09 20:42:00,53.9,47.9,30.31,NW,311,0.0,0.0,80,0.00,,SKC,0.00,VWS V14.01,2013-04-10 03:42:00,
2013-04-09 20:45:00,53.9,47.5,30.31,NW,311,0.0,0.0,79,0.00,,SKC,0.00,VWS V14.01,2013-04-10 03:45:00,
2013-04-09 20:46:00,53.8,47.8,30.31,NW,311,0.0,0.0,80,0.00,,SKC,0.00,VWS V14.01,2013-04-10 03:46:00,
2013-04-09 20:48:00,53.8,47.1,30.31,NW,311,0.0,0.0,78,0.00,,SKC,0.00,VWS V14.01,2013-04-10 03:48:00,
2013-04-09 20:50:00,53.7,47.3,30.31,NW,311,0.0,0.0,79,0.00,,SKC,0.00,VWS V14.01,2013-04-10 03:50:00,
2013-04-09 20:52:00,53.7,47.0,30.31,NW,311,0.0,0.0,78,0.00,,SKC,0.00,VWS V14.01,2013-04-10 03:52:00,
2013-04-09 20:53:00,53.7,47.0,30.31,NW,311,0.0,0.0,78,0.00,,SKC,0.00,VWS V14.01,2013-04-10 03:53:00,
2013-04-09 20:55:00,53.6,46.9,30.31,NW,311,0.0,0.0,78,0.00,,SKC,0.00,VWS V14.01,2013-04-10 03:55:00,
2013-04-09 20:56:00,53.6,46.9,30.31,NW,311,0.0,0.0,78,0.00,,SKC,0.00,VWS V14.01,2013-04-10 03:56:00,
2013-04-09 20:57:00,53.6,46.9,30.31,NW,311,0.0,0.0,78,0.00,,SKC,0.00,VWS V14.01,2013-04-10 03:57:00,
2013-04-09 20:58:00,53.5,47.2,30.31,NW,311,0.0,0.0,79,0.00,,SKC,0.00,VWS V14.01,2013-04-10 03:58:00,
2013-04-09 21:00:00,53.5,47.2,30.31,NW,311,0.0,0.0,79,0.00,,SKC,0.00,VWS V14.01,2013-04-10 04:00:00,
2013-04-09 21:05:00,53.4,47.4,30.31,NW,311,0.0,0.0,80,0.00,,SKC,0.00,VWS V14.01,2013-04-10 04:05:00,
2013-04-09 21:10:00,53.3,47.6,30.31,NW,311,0.0,0.0,81,0.00,,SKC,0.00,VWS V14.01,2013-04-10 04:10:00,
2013-04-09 21:15:00,53.2,47.9,30.32,NW,311,0.0,0.0,82,0.00,,SKC,0.00,VWS V14.01,2013-04-10 04:15:00,
2013-04-09 21:16:00,53.2,47.9,30.32,NW,311,0.0,0.0,82,0.00,,SKC,0.00,VWS V14.01,2013-04-10 04:16:00,
2013-04-09 21:20:00,53.2,47.5,30.32,NW,311,0.0,0.0,81,0.00,,SKC,0.00,VWS V14.01,2013-04-10 04:20:00,
2013-04-09 21:21:00,53.1,47.4,30.32,NW,311,0.0,0.0,81,0.00,,SKC,0.00,VWS V14.01,2013-04-10 04:21:00,
2013-04-09 21:26:00,53.0,47.3,30.32,NW,311,0.0,0.0,81,0.00,,SKC,0.00,VWS V14.01,2013-04-10 04:26:00,
2013-04-09 21:27:00,53.0,47.7,30.32,NW,311,0.0,0.0,82,0.00,,SKC,0.00,VWS V14.01,2013-04-10 04:27:00,
2013-04-09 21:30:00,52.9,47.6,30.32,NW,311,0.0,0.0,82,0.00,,SKC,0.00,VWS V14.01,2013-04-10 04:30:00,
2013-04-09 21:31:00,53.0,48.0,30.32,NW,311,0.0,0.0,83,0.00,,SKC,0.00,VWS V14.01,2013-04-10 04:31:00,
2013-04-09 21:32:00,53.0,48.0,30.32,NW,311,0.0,0.0,83,0.00,,SKC,0.00,VWS V14.01,2013-04-10 04:32:00,
2013-04-09 21:33:00,53.0,48.0,30.32,NW,311,0.0,0.0,83,0.00,,SKC,0.00,VWS V14.01,2013-04-10 04:33:00,
2013-04-09 21:37:00,52.9,47.9,30.32,NW,311,0.0,0.0,83,0.00,,SKC,0.00,VWS V14.01,2013-04-10 04:37:00,
2013-04-09 21:38:00,52.9,47.9,30.32,NW,311,0.0,0.0,83,0.00,,SKC,0.00,VWS V14.01,2013-04-10 04:38:00,
2013-04-09 21:42:00,52.9,47.6,30.32,NW,311,0.0,0.0,82,0.00,,SKC,0.00,VWS V14.01,2013-04-10 04:42:00,
2013-04-09 21:43:00,52.9,47.6,30.32,NW,311,0.0,0.0,82,0.00,,SKC,0.00,VWS V14.01,2013-04-10 04:43:00,
2013-04-09 21:44:00,52.9,47.6,30.32,NW,311,0.0,0.0,82,0.00,,SKC,0.00,VWS V14.01,2013-04-10 04:44:00,
2013-04-09 21:45:00,52.8,48.1,30.32,NW,311,0.0,0.0,84,0.00,,SKC,0.00,VWS V14.01,2013-04-10 04:45:00,
2013-04-09 21:47:00,52.8,47.5,30.32,NW,311,0.0,0.0,82,0.00,,SKC,0.00,VWS V14.01,2013-04-10 04:47:00,
2013-04-09 21:48:00,52.8,47.5,30.32,NW,311,0.0,0.0,82,0.00,,SKC,0.00,VWS V14.01,2013-04-10 04:48:00,
2013-04-09 21:49:00,52.8,47.5,30.32,NW,311,0.0,0.0,82,0.00,,SKC,0.00,VWS V14.01,2013-04-10 04:49:00,
2013-04-09 21:53:00,52.8,47.8,30.32,NW,311,0.0,0.0,83,0.00,,SKC,0.00,VWS V14.01,2013-04-10 04:53:00,
2013-04-09 21:54:00,52.8,47.8,30.32,NW,311,0.0,0.0,83,0.00,,SKC,0.00,VWS V14.01,2013-04-10 04:54:00,
2013-04-09 21:58:00,52.8,48.1,30.32,NW,311,0.0,0.0,84,0.00,,SKC,0.00,VWS V14.01,2013-04-10 04:58:00,
2013-04-09 21:59:00,52.8,48.1,30.32,NW,311,0.0,0.0,84,0.00,,SKC,0.00,VWS V14.01,2013-04-10 04:59:00,
2013-04-09 22:00:00,52.8,48.1,30.31,NW,311,0.0,0.0,84,0.00,,SKC,0.00,VWS V14.01,2013-04-10 05:00:00,
2013-04-09 22:03:00,52.8,48.4,30.31,NW,311,0.0,0.0,85,0.00,,SKC,0.00,VWS V14.01,2013-04-10 05:03:00,
2013-04-09 22:04:00,52.8,48.4,30.31,NW,311,0.0,0.0,85,0.00,,SKC,0.00,VWS V14.01,2013-04-10 05:04:00,
2013-04-09 22:08:00,52.8,48.1,30.31,NW,311,0.0,0.0,84,0.00,,SKC,0.00,VWS V14.01,2013-04-10 05:08:00,
2013-04-09 22:09:00,52.8,48.1,30.31,NW,311,0.0,0.0,84,0.00,,SKC,0.00,VWS V14.01,2013-04-10 05:09:00,
2013-04-09 22:13:00,52.8,48.1,30.31,NW,311,0.0,0.0,84,0.00,,SKC,0.00,VWS V14.01,2013-04-10 05:13:00,
2013-04-09 22:14:00,52.8,48.1,30.31,NW,311,0.0,0.0,84,0.00,,SKC,0.00,VWS V14.01,2013-04-10 05:14:00,
2013-04-09 22:15:00,52.8,47.8,30.31,NW,311,0.0,0.0,83,0.00,,SKC,0.00,VWS V14.01,2013-04-10 05:15:00,
2013-04-09 22:19:00,52.8,48.1,30.31,NW,311,0.0,0.0,84,0.00,,SKC,0.00,VWS V14.01,2013-04-10 05:19:00,
2013-04-09 22:24:00,52.8,48.1,30.31,NW,311,0.0,0.0,84,0.00,,SKC,0.00,VWS V14.01,2013-04-10 05:24:00,
2013-04-09 22:25:00,52.8,48.1,30.31,NW,311,0.0,0.0,84,0.00,,SKC,0.00,VWS V14.01,2013-04-10 05:25:00,
2013-04-09 22:29:00,52.8,48.4,30.31,NW,311,0.0,0.0,85,0.00,,SKC,0.00,VWS V14.01,2013-04-10 05:29:00,
2013-04-09 22:30:00,52.8,48.4,30.31,NW,311,0.0,0.0,85,0.00,,SKC,0.00,VWS V14.01,2013-04-10 05:30:00,
2013-04-09 22:35:00,52.8,48.1,30.31,NW,311,0.0,0.0,84,0.00,,SKC,0.00,VWS V14.01,2013-04-10 05:35:00,
2013-04-09 22:40:00,52.8,48.1,30.31,NW,311,0.0,0.0,84,0.00,,SKC,0.00,VWS V14.01,2013-04-10 05:40:00,
2013-04-09 22:41:00,52.8,48.4,30.31,NW,311,0.0,0.0,85,0.00,,SKC,0.00,VWS V14.01,2013-04-10 05:41:00,
2013-04-09 22:45:00,52.8,48.1,30.31,NW,311,0.0,0.0,84,0.00,,SKC,0.00,VWS V14.01,2013-04-10 05:45:00,
2013-04-09 22:46:00,52.7,48.3,30.31,NW,311,0.0,0.0,85,0.00,,SKC,0.00,VWS V14.01,2013-04-10 05:46:00,
2013-04-09 22:48:00,52.7,48.3,30.30,NW,311,0.0,0.0,85,0.00,,SKC,0.00,VWS V14.01,2013-04-10 05:48:00,
2013-04-09 22:50:00,52.8,48.4,30.30,NW,311,0.0,0.0,85,0.00,,SKC,0.00,VWS V14.01,2013-04-10 05:50:00,
2013-04-09 22:52:00,52.7,48.3,30.30,NW,311,0.0,0.0,85,0.00,,SKC,0.00,VWS V14.01,2013-04-10 05:52:00,
2013-04-09 22:55:00,52.7,48.3,30.30,NW,311,0.0,0.0,85,0.00,,SKC,0.00,VWS V14.01,2013-04-10 05:55:00,
2013-04-09 22:57:00,52.7,48.3,30.30,NW,311,0.0,0.0,85,0.00,,SKC,0.00,VWS V14.01,2013-04-10 05:57:00,
2013-04-09 22:58:00,52.7,48.3,30.30,NW,311,0.0,0.0,85,0.00,,SKC,0.00,VWS V14.01,2013-04-10 05:58:00,
2013-04-09 23:00:00,52.7,48.6,30.29,NW,311,0.0,0.0,86,0.00,,SKC,0.00,VWS V14.01,2013-04-10 06:00:00,
2013-04-09 23:02:00,52.7,48.6,30.30,NW,311,0.0,0.0,86,0.00,,SKC,0.00,VWS V14.01,2013-04-10 06:02:00,
2013-04-09 23:03:00,52.7,49.0,30.30,NW,311,0.0,0.0,87,0.00,,SKC,0.00,VWS V14.01,2013-04-10 06:03:00,
2013-04-09 23:07:00,52.7,48.6,30.29,NW,311,0.0,0.0,86,0.00,,SKC,0.00,VWS V14.01,2013-04-10 06:07:00,
2013-04-09 23:08:00,52.7,48.6,30.29,NW,311,0.0,0.0,86,0.00,,SKC,0.00,VWS V14.01,2013-04-10 06:08:00,
2013-04-09 23:12:00,52.6,48.5,30.29,NW,311,0.0,0.0,86,0.00,,SKC,0.00,VWS V14.01,2013-04-10 06:12:00,
2013-04-09 23:13:00,52.7,48.6,30.29,NW,311,0.0,0.0,86,0.00,,SKC,0.00,VWS V14.01,2013-04-10 06:13:00,
2013-04-09 23:14:00,52.6,48.5,30.29,NW,311,0.0,0.0,86,0.00,,SKC,0.00,VWS V14.01,2013-04-10 06:14:00,
2013-04-09 23:15:00,52.6,48.5,30.28,NW,311,0.0,0.0,86,0.00,,SKC,0.00,VWS V14.01,2013-04-10 06:15:00,
2013-04-09 23:17:00,52.6,48.8,30.28,NW,311,0.0,0.0,87,0.00,,SKC,0.00,VWS V14.01,2013-04-10 06:17:00,
2013-04-09 23:18:00,52.6,48.8,30.28,NW,311,0.0,0.0,87,0.00,,SKC,0.00,VWS V14.01,2013-04-10 06:18:00,
2013-04-09 23:20:00,52.6,48.5,30.28,NW,311,0.0,0.0,86,0.00,,SKC,0.00,VWS V14.01,2013-04-10 06:20:00,
2013-04-09 23:23:00,52.6,48.5,30.28,NW,311,0.0,0.0,86,0.00,,SKC,0.00,VWS V14.01,2013-04-10 06:23:00,
2013-04-09 23:26:00,52.6,48.5,30.28,NW,311,0.0,0.0,86,0.00,,SKC,0.00,VWS V14.01,2013-04-10 06:26:00,
2013-04-09 23:28:00,52.5,48.4,30.28,NW,311,0.0,0.0,86,0.00,,SKC,0.00,VWS V14.01,2013-04-10 06:28:00,
2013-04-09 23:30:00,52.4,48.3,30.28,NW,311,0.0,0.0,86,0.00,,SKC,0.00,VWS V14.01,2013-04-10 06:30:00,
2013-04-09 23:31:00,52.5,48.4,30.28,NW,311,0.0,0.0,86,0.00,,SKC,0.00,VWS V14.01,2013-04-10 06:31:00,
2013-04-09 23:33:00,52.4,48.3,30.28,NW,311,0.0,0.0,86,0.00,,SKC,0.00,VWS V14.01,2013-04-10 06:33:00,
2013-04-09 23:34:00,52.4,48.3,30.28,NW,311,0.0,0.0,86,0.00,,SKC,0.00,VWS V14.01,2013-04-10 06:34:00,
2013-04-09 23:36:00,52.4,48.7,30.28,NW,311,0.0,0.0,87,0.00,,SKC,0.00,VWS V14.01,2013-04-10 06:36:00,
2013-04-09 23:39:00,52.4,48.3,30.28,NW,311,0.0,0.0,86,0.00,,SKC,0.00,VWS V14.01,2013-04-10 06:39:00,
2013-04-09 23:41:00,52.3,48.2,30.28,NW,311,0.0,0.0,86,0.00,,SKC,0.00,VWS V14.01,2013-04-10 06:41:00,
2013-04-09 23:44:00,52.3,48.5,30.28,NW,311,0.0,0.0,87,0.00,,SKC,0.00,VWS V14.01,2013-04-10 06:44:00,
2013-04-09 23:45:00,52.2,48.5,30.28,NW,311,0.0,0.0,87,0.00,,SKC,0.00,VWS V14.01,2013-04-10 06:45:00,
2013-04-09 23:47:00,52.3,48.2,30.28,NW,311,0.0,0.0,86,0.00,,SKC,0.00,VWS V14.01,2013-04-10 06:47:00,
2013-04-09 23:49:00,52.3,48.2,30.28,NW,311,0.0,0.0,86,0.00,,SKC,0.00,VWS V14.01,2013-04-10 06:49:00,
2013-04-09 23:50:00,52.3,48.2,30.28,NW,311,0.0,0.0,86,0.00,,SKC,0.00,VWS V14.01,2013-04-10 06:50:00,
2013-04-09 23:52:00,52.2,48.5,30.28,NW,311,0.0,0.0,87,0.00,,SKC,0.00,VWS V14.01,2013-04-10 06:52:00,
2013-04-09 23:54:00,52.2,48.5,30.28,NW,311,0.0,0.0,87,0.00,,SKC,0.00,VWS V14.01,2013-04-10 06:54:00,
2013-04-09 23:55:00,52.2,48.5,30.28,NW,311,0.0,0.0,87,0.00,,SKC,0.00,VWS V14.01,2013-04-10 06:55:00,
2013-04-09 23:57:00,52.2,48.5,30.28,NW,311,0.0,0.0,87,0.00,,SKC,0.00,VWS V14.01,2013-04-10 06:57:00,
2013-04-09 23:59:00,52.2,48.5,30.29,NW,311,0.0,0.0,87,0.00,,SKC,0.00,VWS V14.01,2013-04-10 06:59:00,